Time,TemperatureF,DewpointF,PressureIn,WindDirection,WindDirectionDegrees,WindSpeedMPH,WindSpeedGustMPH,Humidity,HourlyPrecipIn,Conditions,Clouds,dailyrainin,SoftwareType,DateUTC
2013-04-01 00:00:00,43.3,21.2,29.93,WSW,248,8.0,13.0,41,0.00,,,0.27,meteohub,2013-04-01 04:00:00,
2013-04-01 00:02:00,43.3,21.2,29.93,WSW,248,8.0,13.0,41,0.00,,,0.27,meteohub,2013-04-01 04:02:00,
2013-04-01 00:05:00,43.3,21.2,29.93,West,270,5.0,13.0,41,0.00,,,0.00,meteohub,2013-04-01 04:05:00,
2013-04-01 00:07:00,43.3,20.7,29.93,NW,315,6.0,13.0,40,0.00,,,0.00,meteohub,2013-04-01 04:07:00,
2013-04-01 00:08:00,43.3,20.7,29.93,WSW,248,7.0,13.0,40,0.00,,,0.00,meteohub,2013-04-01 04:08:00,
2013-04-01 00:11:00,43.3,20.7,29.93,WSW,248,5.0,13.0,40,0.00,,,0.00,meteohub,2013-04-01 04:11:00,
2013-04-01 00:12:00,43.3,20.7,29.93,West,270,11.0,13.0,40,0.00,,,0.00,meteohub,2013-04-01 04:12:00,
2013-04-01 00:13:00,43.3,20.7,29.92,WSW,248,3.0,13.0,40,0.00,,,0.00,meteohub,2013-04-01 04:13:00,
2013-04-01 00:17:00,43.3,20.7,29.92,WNW,293,9.0,13.0,40,0.00,,,0.00,meteohub,2013-04-01 04:17:00,
2013-04-01 00:18:00,43.3,20.7,29.92,WSW,248,9.0,13.0,40,0.00,,,0.00,meteohub,2013-04-01 04:18:00,
2013-04-01 00:19:00,43.2,20.5,29.92,WSW,248,4.0,13.0,40,0.00,,,0.00,meteohub,2013-04-01 04:19:00,
2013-04-01 00:23:00,43.2,20.5,29.92,WSW,248,5.0,12.0,40,0.00,,,0.00,meteohub,2013-04-01 04:23:00,
2013-04-01 00:24:00,43.2,20.5,29.92,WSW,248,4.0,12.0,40,0.00,,,0.00,meteohub,2013-04-01 04:24:00,
2013-04-01 00:28:00,43.2,20.5,29.92,West,270,7.0,11.0,40,0.00,,,0.00,meteohub,2013-04-01 04:28:00,
2013-04-01 00:29:00,43.2,20.5,29.92,South,180,8.0,11.0,40,0.00,,,0.00,meteohub,2013-04-01 04:29:00,
2013-04-01 00:33:00,43.2,21.0,29.92,WSW,248,4.0,9.0,41,0.00,,,0.00,meteohub,2013-04-01 04:33:00,
2013-04-01 00:34:00,43.2,21.0,29.92,WSW,248,4.0,9.0,41,0.00,,,0.00,meteohub,2013-04-01 04:34:00,
2013-04-01 00:35:00,43.2,21.0,29.92,WSW,248,7.0,9.0,41,0.00,,,0.00,meteohub,2013-04-01 04:35:00,
2013-04-01 00:39:00,43.2,21.0,29.92,WSW,248,9.0,11.0,41,0.00,,,0.00,meteohub,2013-04-01 04:39:00,
2013-04-01 00:40:00,43.2,21.0,29.92,WSW,248,9.0,11.0,41,0.00,,,0.00,meteohub,2013-04-01 04:40:00,
2013-04-01 00:45:00,43.2,21.0,29.92,WSW,248,15.0,15.0,41,0.00,,,0.00,meteohub,2013-04-01 04:45:00,
2013-04-01 00:48:00,43.2,21.0,29.92,WSW,248,8.0,12.0,41,0.00,,,0.00,meteohub,2013-04-01 04:48:00,
2013-04-01 00:50:00,43.2,21.6,29.92,West,270,9.0,12.0,42,0.00,,,0.00,meteohub,2013-04-01 04:50:00,
2013-04-01 00:51:00,43.2,21.0,29.92,South,180,9.0,15.0,41,0.00,,,0.00,meteohub,2013-04-01 04:51:00,
2013-04-01 00:53:00,43.2,21.0,29.92,WSW,248,7.0,15.0,41,0.00,,,0.00,meteohub,2013-04-01 04:53:00,
2013-04-01 00:55:00,43.2,21.6,29.92,WSW,248,7.0,15.0,42,0.00,,,0.00,meteohub,2013-04-01 04:55:00,
2013-04-01 00:56:00,43.2,21.6,29.93,WSW,248,4.0,15.0,42,0.00,,,0.00,meteohub,2013-04-01 04:56:00,
2013-04-01 00:57:00,43.2,21.6,29.93,WSW,248,4.0,15.0,42,0.00,,,0.00,meteohub,2013-04-01 04:57:00,
2013-04-01 00:58:00,43.2,21.0,29.92,South,180,4.0,15.0,41,0.00,,,0.00,meteohub,2013-04-01 04:58:00,
2013-04-01 01:01:00,43.2,21.0,29.93,NW,315,14.0,15.0,41,0.00,,,0.00,meteohub,2013-04-01 05:01:00,
2013-04-01 01:02:00,43.2,21.0,29.93,NW,315,14.0,15.0,41,0.00,,,0.00,meteohub,2013-04-01 05:02:00,
2013-04-01 01:03:00,43.2,21.0,29.93,South,180,4.0,15.0,41,0.00,,,0.00,meteohub,2013-04-01 05:03:00,
2013-04-01 01:07:00,43.2,21.6,29.92,North,0,8.0,14.0,42,0.00,,,0.00,meteohub,2013-04-01 05:07:00,
2013-04-01 01:08:00,43.2,21.6,29.92,WSW,248,9.0,14.0,42,0.00,,,0.00,meteohub,2013-04-01 05:08:00,
2013-04-01 01:09:00,43.2,21.6,29.93,WSW,248,8.0,14.0,42,0.00,,,0.00,meteohub,2013-04-01 05:09:00,
2013-04-01 01:12:00,43.2,21.6,29.92,WSW,248,18.0,18.0,42,0.00,,,0.00,meteohub,2013-04-01 05:12:00,
2013-04-01 01:13:00,43.2,21.6,29.93,West,270,8.0,14.0,42,0.00,,,0.00,meteohub,2013-04-01 05:13:00,
2013-04-01 01:14:00,43.2,21.6,29.93,WSW,248,6.0,14.0,42,0.00,,,0.00,meteohub,2013-04-01 05:14:00,
2013-04-01 01:18:00,43.2,21.6,29.92,WSW,248,7.0,18.0,42,0.00,,,0.00,meteohub,2013-04-01 05:18:00,
2013-04-01 01:19:00,43.2,21.6,29.92,WSW,248,9.0,18.0,42,0.00,,,0.00,meteohub,2013-04-01 05:19:00,
2013-04-01 01:22:00,43.2,21.6,29.93,West,270,8.0,18.0,42,0.00,,,0.00,meteohub,2013-04-01 05:22:00,
2013-04-01 01:23:00,43.2,21.0,29.93,WSW,248,8.0,18.0,41,0.00,,,0.00,meteohub,2013-04-01 05:23:00,
2013-04-01 01:24:00,43.2,21.6,29.93,WSW,248,10.0,18.0,42,0.00,,,0.00,meteohub,2013-04-01 05:24:00,
2013-04-01 01:27:00,43.2,21.0,29.92,West,270,11.0,18.0,41,0.00,,,0.00,meteohub,2013-04-01 05:27:00,
2013-04-01 01:28:00,43.2,21.0,29.92,NW,315,11.0,18.0,41,0.00,,,0.00,meteohub,2013-04-01 05:28:00,
2013-04-01 01:29:00,43.3,21.2,29.92,WSW,248,10.0,18.0,41,0.00,,,0.00,meteohub,2013-04-01 05:29:00,
2013-04-01 01:30:00,43.3,21.2,29.92,WSW,248,10.0,18.0,41,0.00,,,0.00,meteohub,2013-04-01 05:30:00,
2013-04-01 01:32:00,43.2,21.0,29.92,WSW,248,8.0,11.0,41,0.00,,,0.00,meteohub,2013-04-01 05:32:00,
2013-04-01 01:34:00,43.3,21.2,29.92,WSW,248,15.0,15.0,41,0.00,,,0.00,meteohub,2013-04-01 05:34:00,
2013-04-01 01:35:00,43.3,21.2,29.92,WSW,248,10.0,11.0,41,0.00,,,0.00,meteohub,2013-04-01 05:35:00,
2013-04-01 01:37:00,43.3,20.7,29.92,WSW,248,12.0,12.0,40,0.00,,,0.00,meteohub,2013-04-01 05:37:00,
2013-04-01 01:39:00,43.3,20.7,29.93,South,180,8.0,11.0,40,0.00,,,0.00,meteohub,2013-04-01 05:39:00,
2013-04-01 01:40:00,43.3,20.7,29.92,WSW,248,5.0,11.0,40,0.00,,,0.00,meteohub,2013-04-01 05:40:00,
2013-04-01 01:43:00,43.5,20.8,29.93,West,270,4.0,15.0,40,0.00,,,0.00,meteohub,2013-04-01 05:43:00,
2013-04-01 01:45:00,43.5,20.8,29.92,South,180,6.0,15.0,40,0.00,,,0.00,meteohub,2013-04-01 05:45:00,
2013-04-01 01:46:00,43.5,20.8,29.93,WSW,248,3.0,17.0,40,0.00,,,0.00,meteohub,2013-04-01 05:46:00,
2013-04-01 01:48:00,43.5,20.8,29.92,WSW,248,11.0,17.0,40,0.00,,,0.00,meteohub,2013-04-01 05:48:00,
2013-04-01 01:50:00,43.5,20.1,29.92,West,270,10.0,17.0,39,0.00,,,0.00,meteohub,2013-04-01 05:50:00,
2013-04-01 01:51:00,43.5,20.1,29.92,East,90,2.0,17.0,39,0.00,,,0.00,meteohub,2013-04-01 05:51:00,
2013-04-01 01:53:00,43.5,20.1,29.91,WSW,248,13.0,17.0,39,0.00,,,0.00,meteohub,2013-04-01 05:53:00,
2013-04-01 01:55:00,43.5,20.1,29.92,WSW,248,11.0,17.0,39,0.00,,,0.00,meteohub,2013-04-01 05:55:00,
2013-04-01 01:56:00,43.5,20.1,29.92,WSW,248,11.0,17.0,39,0.00,,,0.00,meteohub,2013-04-01 05:56:00,
2013-04-01 01:57:00,43.5,20.1,29.92,West,270,7.0,17.0,39,0.00,,,0.00,meteohub,2013-04-01 05:57:00,
2013-04-01 01:59:00,43.5,20.1,29.91,WSW,248,14.0,17.0,39,0.00,,,0.00,meteohub,2013-04-01 05:59:00,
2013-04-01 02:00:00,43.5,19.6,29.92,WSW,248,11.0,15.0,38,0.00,,,0.00,meteohub,2013-04-01 06:00:00,
2013-04-01 02:01:00,43.5,19.6,29.92,WSW,248,11.0,15.0,38,0.00,,,0.00,meteohub,2013-04-01 06:01:00,
2013-04-01 02:02:00,43.7,19.8,29.92,WSW,248,11.0,15.0,38,0.00,,,0.00,meteohub,2013-04-01 06:02:00,
2013-04-01 02:04:00,43.5,19.0,29.91,WSW,248,16.0,16.0,37,0.00,,,0.00,meteohub,2013-04-01 06:04:00,
2013-04-01 02:07:00,43.5,18.3,29.91,West,270,11.0,15.0,36,0.00,,,0.00,meteohub,2013-04-01 06:07:00,
2013-04-01 02:08:00,43.5,18.3,29.91,West,270,11.0,15.0,36,0.00,,,0.00,meteohub,2013-04-01 06:08:00,
2013-04-01 02:09:00,43.5,18.3,29.92,WSW,248,10.0,15.0,36,0.00,,,0.00,meteohub,2013-04-01 06:09:00,
2013-04-01 02:12:00,43.5,17.6,29.92,South,180,10.0,16.0,35,0.00,,,0.00,meteohub,2013-04-01 06:12:00,
2013-04-01 02:13:00,43.5,17.6,29.92,South,180,10.0,16.0,35,0.00,,,0.00,meteohub,2013-04-01 06:13:00,
2013-04-01 02:14:00,43.5,17.6,29.91,WSW,248,8.0,16.0,35,0.00,,,0.00,meteohub,2013-04-01 06:14:00,
2013-04-01 02:18:00,43.3,17.6,29.91,WSW,248,6.0,16.0,35,0.00,,,0.00,meteohub,2013-04-01 06:18:00,
2013-04-01 02:19:00,43.3,16.9,29.91,WSW,248,11.0,16.0,34,0.00,,,0.00,meteohub,2013-04-01 06:19:00,
2013-04-01 02:22:00,43.5,17.1,29.91,NW,315,4.0,14.0,34,0.00,,,0.00,meteohub,2013-04-01 06:22:00,
2013-04-01 02:23:00,43.5,16.3,29.91,WSW,248,16.0,16.0,33,0.00,,,0.00,meteohub,2013-04-01 06:23:00,
2013-04-01 02:24:00,43.5,16.3,29.91,South,180,7.0,14.0,33,0.00,,,0.00,meteohub,2013-04-01 06:24:00,
2013-04-01 02:25:00,43.7,16.5,29.91,WSW,248,9.0,14.0,33,0.00,,,0.00,meteohub,2013-04-01 06:25:00,
2013-04-01 02:29:00,43.7,15.1,29.91,North,0,20.0,20.0,31,0.00,,,0.00,meteohub,2013-04-01 06:29:00,
2013-04-01 02:30:00,43.7,14.4,29.91,South,180,15.0,16.0,30,0.00,,,0.00,meteohub,2013-04-01 06:30:00,
2013-04-01 02:34:00,43.7,12.7,29.91,South,180,13.0,16.0,28,0.00,,,0.00,meteohub,2013-04-01 06:34:00,
2013-04-01 02:35:00,43.9,12.9,29.91,West,270,17.0,20.0,28,0.00,,,0.00,meteohub,2013-04-01 06:35:00,
2013-04-01 02:40:00,43.9,11.1,29.91,WSW,248,11.0,20.0,26,0.00,,,0.00,meteohub,2013-04-01 06:40:00,
2013-04-01 02:41:00,43.9,10.4,29.91,WSW,248,12.0,20.0,25,0.00,,,0.00,meteohub,2013-04-01 06:41:00,
2013-04-01 02:43:00,43.9,10.4,29.91,West,270,13.0,20.0,25,0.00,,,0.00,meteohub,2013-04-01 06:43:00,
2013-04-01 02:45:00,44.1,9.5,29.91,WSW,248,14.0,17.0,24,0.00,,,0.00,meteohub,2013-04-01 06:45:00,
2013-04-01 02:46:00,44.1,9.5,29.91,WSW,248,14.0,17.0,24,0.00,,,0.00,meteohub,2013-04-01 06:46:00,
2013-04-01 02:49:00,44.1,8.6,29.91,West,270,7.0,17.0,23,0.00,,,0.00,meteohub,2013-04-01 06:49:00,
2013-04-01 02:51:00,44.1,7.7,29.91,WSW,248,11.0,17.0,22,0.00,,,0.00,meteohub,2013-04-01 06:51:00,
2013-04-01 02:52:00,44.1,7.7,29.91,WSW,248,9.0,17.0,22,0.00,,,0.00,meteohub,2013-04-01 06:52:00,
2013-04-01 02:54:00,44.1,7.7,29.91,WSW,248,8.0,17.0,22,0.00,,,0.00,meteohub,2013-04-01 06:54:00,
2013-04-01 02:57:00,43.9,7.5,29.91,NW,315,15.0,17.0,22,0.00,,,0.00,meteohub,2013-04-01 06:57:00,
2013-04-01 03:00:00,43.9,7.5,29.91,NW,315,8.0,17.0,22,0.00,,,0.00,meteohub,2013-04-01 07:00:00,
2013-04-01 03:02:00,43.9,9.3,29.91,West,270,8.0,15.0,24,0.00,,,0.00,meteohub,2013-04-01 07:02:00,
2013-04-01 03:03:00,43.7,9.3,29.92,South,180,14.0,15.0,24,0.00,,,0.00,meteohub,2013-04-01 07:03:00,
2013-04-01 03:07:00,43.7,11.1,29.91,WSW,248,6.0,15.0,26,0.00,,,0.00,meteohub,2013-04-01 07:07:00,
2013-04-01 03:08:00,43.7,11.1,29.91,WSW,248,6.0,15.0,26,0.00,,,0.00,meteohub,2013-04-01 07:08:00,
2013-04-01 03:09:00,43.5,10.9,29.91,WSW,248,11.0,15.0,26,0.00,,,0.00,meteohub,2013-04-01 07:09:00,
2013-04-01 03:12:00,43.3,12.4,29.92,WSW,248,8.0,15.0,28,0.01,,,0.01,meteohub,2013-04-01 07:12:00,
2013-04-01 03:13:00,43.3,12.4,29.92,WSW,248,8.0,15.0,28,0.01,,,0.01,meteohub,2013-04-01 07:13:00,
2013-04-01 03:14:00,43.3,13.3,29.91,WSW,248,7.0,15.0,29,0.01,,,0.01,meteohub,2013-04-01 07:14:00,
2013-04-01 03:17:00,43.2,13.1,29.91,North,0,8.0,14.0,29,0.01,,,0.01,meteohub,2013-04-01 07:17:00,
2013-04-01 03:18:00,43.2,13.8,29.92,South,180,6.0,14.0,30,0.01,,,0.01,meteohub,2013-04-01 07:18:00,
2013-04-01 03:19:00,43.2,13.8,29.92,West,270,7.0,14.0,30,0.01,,,0.01,meteohub,2013-04-01 07:19:00,
2013-04-01 03:20:00,43.2,14.5,29.91,West,270,11.0,14.0,31,0.01,,,0.01,meteohub,2013-04-01 07:20:00,
2013-04-01 03:22:00,43.0,14.4,29.92,NW,315,6.0,14.0,31,0.01,,,0.01,meteohub,2013-04-01 07:22:00,
2013-04-01 03:23:00,43.0,15.1,29.91,NW,315,6.0,14.0,32,0.01,,,0.01,meteohub,2013-04-01 07:23:00,
2013-04-01 03:25:00,42.8,14.9,29.91,NW,315,16.0,16.0,32,0.01,,,0.01,meteohub,2013-04-01 07:25:00,
2013-04-01 03:27:00,45.1,17.8,29.91,WSW,248,14.0,14.0,33,0.01,,,0.01,meteohub,2013-04-01 07:27:00,
2013-04-01 03:28:00,42.8,15.6,29.91,WNW,293,11.0,13.0,33,0.01,,,0.01,meteohub,2013-04-01 07:28:00,
2013-04-01 03:30:00,42.8,16.3,29.91,WSW,248,10.0,16.0,34,0.02,,,0.02,meteohub,2013-04-01 07:30:00,
2013-04-01 03:31:00,42.8,16.3,29.91,WSW,248,10.0,16.0,34,0.02,,,0.02,meteohub,2013-04-01 07:31:00,
2013-04-01 03:33:00,42.8,17.1,29.91,South,180,8.0,16.0,35,0.02,,,0.02,meteohub,2013-04-01 07:33:00,
2013-04-01 03:36:00,42.6,17.6,29.91,WSW,248,6.0,21.0,36,0.02,,,0.02,meteohub,2013-04-01 07:36:00,
2013-04-01 03:37:00,42.6,17.6,29.91,West,270,8.0,21.0,36,0.02,,,0.02,meteohub,2013-04-01 07:37:00,
2013-04-01 03:38:00,42.6,17.6,29.91,West,270,8.0,21.0,36,0.02,,,0.02,meteohub,2013-04-01 07:38:00,
2013-04-01 03:41:00,42.6,17.6,29.91,South,180,9.0,21.0,36,0.02,,,0.02,meteohub,2013-04-01 07:41:00,
2013-04-01 03:44:00,42.6,18.1,29.91,WSW,248,11.0,21.0,37,0.02,,,0.02,meteohub,2013-04-01 07:44:00,
2013-04-01 03:48:00,42.4,18.7,29.91,WNW,293,13.0,15.0,38,0.02,,,0.02,meteohub,2013-04-01 07:48:00,
2013-04-01 03:49:00,42.4,18.7,29.91,WNW,293,8.0,15.0,38,0.02,,,0.02,meteohub,2013-04-01 07:49:00,
2013-04-01 03:54:00,42.4,18.7,29.90,East,90,8.0,15.0,38,0.02,,,0.02,meteohub,2013-04-01 07:54:00,
2013-04-01 03:55:00,42.4,18.7,29.91,WSW,248,8.0,15.0,38,0.02,,,0.02,meteohub,2013-04-01 07:55:00,
2013-04-01 03:59:00,42.4,19.2,29.90,WSW,248,12.0,13.0,39,0.02,,,0.02,meteohub,2013-04-01 07:59:00,
2013-04-01 04:00:00,42.4,19.2,29.90,WSW,248,8.0,13.0,39,0.02,,,0.02,meteohub,2013-04-01 08:00:00,
2013-04-01 04:01:00,42.4,19.2,29.91,WSW,248,10.0,14.0,39,0.02,,,0.02,meteohub,2013-04-01 08:01:00,
2013-04-01 04:05:00,42.4,19.2,29.91,South,180,8.0,15.0,39,0.02,,,0.02,meteohub,2013-04-01 08:05:00,
2013-04-01 04:06:00,42.4,19.2,29.90,WSW,248,8.0,15.0,39,0.02,,,0.02,meteohub,2013-04-01 08:06:00,
2013-04-01 04:07:00,42.4,19.2,29.91,WSW,248,8.0,15.0,39,0.02,,,0.02,meteohub,2013-04-01 08:07:00,
2013-04-01 04:12:00,42.6,19.4,29.90,NW,315,8.0,15.0,39,0.01,,,0.02,meteohub,2013-04-01 08:12:00,
2013-04-01 04:17:00,42.6,19.4,29.89,WSW,248,5.0,21.0,39,0.01,,,0.02,meteohub,2013-04-01 08:17:00,
2013-04-01 04:20:00,42.8,18.9,29.90,WSW,248,11.0,21.0,38,0.01,,,0.02,meteohub,2013-04-01 08:20:00,
2013-04-01 04:22:00,42.8,18.9,29.89,South,180,15.0,21.0,38,0.01,,,0.02,meteohub,2013-04-01 08:22:00,
2013-04-01 04:23:00,42.8,18.9,29.90,WSW,248,11.0,21.0,38,0.01,,,0.02,meteohub,2013-04-01 08:23:00,
2013-04-01 04:24:00,42.8,18.9,29.89,WSW,248,6.0,21.0,38,0.01,,,0.02,meteohub,2013-04-01 08:24:00,
2013-04-01 04:28:00,42.8,18.3,29.90,WSW,248,13.0,21.0,37,0.00,,,0.02,meteohub,2013-04-01 08:28:00,
2013-04-01 04:30:00,42.6,18.1,29.89,NW,315,8.0,21.0,37,0.00,,,0.02,meteohub,2013-04-01 08:30:00,
2013-04-01 04:33:00,42.6,17.6,29.90,South,180,11.0,15.0,36,0.00,,,0.02,meteohub,2013-04-01 08:33:00,
2013-04-01 04:35:00,42.6,17.6,29.89,WSW,248,4.0,15.0,36,0.00,,,0.02,meteohub,2013-04-01 08:35:00,
2013-04-01 04:37:00,42.6,17.6,29.90,NE,45,7.0,15.0,36,0.00,,,0.02,meteohub,2013-04-01 08:37:00,
2013-04-01 04:38:00,42.6,17.6,29.89,WSW,248,9.0,15.0,36,0.00,,,0.02,meteohub,2013-04-01 08:38:00,
2013-04-01 04:39:00,42.6,17.6,29.89,West,270,6.0,15.0,36,0.00,,,0.02,meteohub,2013-04-01 08:39:00,
2013-04-01 04:40:00,42.6,17.6,29.90,NW,315,7.0,15.0,36,0.00,,,0.02,meteohub,2013-04-01 08:40:00,
2013-04-01 04:42:00,42.6,17.6,29.90,WSW,248,7.0,15.0,36,0.00,,,0.02,meteohub,2013-04-01 08:42:00,
2013-04-01 04:44:00,42.6,17.6,29.90,WSW,248,10.0,15.0,36,0.00,,,0.02,meteohub,2013-04-01 08:44:00,
2013-04-01 04:45:00,42.6,17.6,29.90,West,270,7.0,15.0,36,0.00,,,0.02,meteohub,2013-04-01 08:45:00,
2013-04-01 04:49:00,42.8,17.6,29.90,WSW,248,11.0,15.0,36,0.00,,,0.02,meteohub,2013-04-01 08:49:00,
2013-04-01 04:50:00,42.8,17.6,29.90,WSW,248,11.0,15.0,36,0.00,,,0.02,meteohub,2013-04-01 08:50:00,
2013-04-01 04:51:00,42.8,17.6,29.90,West,270,5.0,11.0,36,0.00,,,0.02,meteohub,2013-04-01 08:51:00,
2013-04-01 04:53:00,42.8,17.6,29.90,West,270,10.0,11.0,36,0.00,,,0.02,meteohub,2013-04-01 08:53:00,
2013-04-01 04:54:00,42.8,17.6,29.90,WSW,248,11.0,11.0,36,0.00,,,0.02,meteohub,2013-04-01 08:54:00,
2013-04-01 04:55:00,42.8,17.6,29.90,WSW,248,15.0,15.0,36,0.00,,,0.02,meteohub,2013-04-01 08:55:00,
2013-04-01 04:58:00,42.8,17.6,29.90,WSW,248,8.0,11.0,36,0.00,,,0.02,meteohub,2013-04-01 08:58:00,
2013-04-01 04:59:00,42.8,17.6,29.90,South,180,8.0,11.0,36,0.00,,,0.02,meteohub,2013-04-01 08:59:00,
2013-04-01 05:01:00,42.8,17.6,29.90,West,270,11.0,15.0,36,0.00,,,0.02,meteohub,2013-04-01 09:01:00,
2013-04-01 05:04:00,42.8,17.1,29.90,SE,135,7.0,15.0,35,0.00,,,0.02,meteohub,2013-04-01 09:04:00,
2013-04-01 05:05:00,42.8,17.1,29.90,SE,135,7.0,15.0,35,0.00,,,0.02,meteohub,2013-04-01 09:05:00,
2013-04-01 05:06:00,42.8,17.1,29.90,NW,315,14.0,17.0,35,0.00,,,0.02,meteohub,2013-04-01 09:06:00,
2013-04-01 05:08:00,42.8,17.1,29.90,WSW,248,4.0,17.0,35,0.00,,,0.02,meteohub,2013-04-01 09:08:00,
2013-04-01 05:10:00,42.8,17.1,29.90,South,180,8.0,17.0,35,0.00,,,0.02,meteohub,2013-04-01 09:10:00,
2013-04-01 05:11:00,42.6,16.9,29.90,WSW,248,11.0,17.0,35,0.00,,,0.02,meteohub,2013-04-01 09:11:00,
2013-04-01 05:12:00,42.6,16.9,29.90,South,180,11.0,17.0,35,0.00,,,0.02,meteohub,2013-04-01 09:12:00,
2013-04-01 05:14:00,42.6,16.9,29.90,West,270,15.0,17.0,35,0.00,,,0.02,meteohub,2013-04-01 09:14:00,
2013-04-01 05:15:00,42.8,17.1,29.91,South,180,4.0,17.0,35,0.00,,,0.02,meteohub,2013-04-01 09:15:00,
2013-04-01 05:16:00,42.8,17.1,29.91,WSW,248,4.0,16.0,35,0.00,,,0.02,meteohub,2013-04-01 09:16:00,
2013-04-01 05:17:00,42.8,17.6,29.90,NNW,338,15.0,16.0,36,0.00,,,0.02,meteohub,2013-04-01 09:17:00,
2013-04-01 05:19:00,42.8,17.6,29.90,West,270,10.0,16.0,36,0.00,,,0.02,meteohub,2013-04-01 09:19:00,
2013-04-01 05:22:00,42.8,17.6,29.91,WSW,248,16.0,16.0,36,0.00,,,0.02,meteohub,2013-04-01 09:22:00,
2013-04-01 05:23:00,42.8,17.6,29.91,West,270,8.0,15.0,36,0.00,,,0.02,meteohub,2013-04-01 09:23:00,
2013-04-01 05:25:00,42.8,17.6,29.91,WSW,248,8.0,15.0,36,0.00,,,0.02,meteohub,2013-04-01 09:25:00,
2013-04-01 05:27:00,42.8,17.6,29.90,West,270,5.0,16.0,36,0.00,,,0.02,meteohub,2013-04-01 09:27:00,
2013-04-01 05:28:00,42.8,17.6,29.91,WSW,248,4.0,16.0,36,0.00,,,0.02,meteohub,2013-04-01 09:28:00,
2013-04-01 05:29:00,42.6,17.6,29.91,WSW,248,11.0,16.0,36,0.00,,,0.02,meteohub,2013-04-01 09:29:00,
2013-04-01 05:30:00,42.6,17.6,29.91,NW,315,11.0,16.0,36,0.00,,,0.02,meteohub,2013-04-01 09:30:00,
2013-04-01 05:32:00,42.6,17.6,29.90,NW,315,11.0,16.0,36,0.00,,,0.02,meteohub,2013-04-01 09:32:00,
2013-04-01 05:34:00,42.6,17.6,29.91,West,270,9.0,16.0,36,0.00,,,0.02,meteohub,2013-04-01 09:34:00,
2013-04-01 05:35:00,42.6,17.6,29.91,North,0,15.0,16.0,36,0.00,,,0.02,meteohub,2013-04-01 09:35:00,
2013-04-01 05:36:00,42.6,17.6,29.90,NW,315,10.0,16.0,36,0.00,,,0.02,meteohub,2013-04-01 09:36:00,
2013-04-01 05:38:00,42.6,17.6,29.91,NW,315,8.0,16.0,36,0.00,,,0.02,meteohub,2013-04-01 09:38:00,
2013-04-01 05:40:00,42.6,18.1,29.90,WSW,248,8.0,16.0,37,0.00,,,0.02,meteohub,2013-04-01 09:40:00,
2013-04-01 05:41:00,42.6,18.1,29.91,WSW,248,4.0,15.0,37,0.00,,,0.02,meteohub,2013-04-01 09:41:00,
2013-04-01 05:43:00,42.6,17.6,29.91,SE,135,4.0,15.0,36,0.00,,,0.02,meteohub,2013-04-01 09:43:00,
2013-04-01 05:46:00,42.6,18.1,29.91,WSW,248,9.0,15.0,37,0.00,,,0.02,meteohub,2013-04-01 09:46:00,
2013-04-01 05:47:00,42.6,18.1,29.91,South,180,9.0,15.0,37,0.00,,,0.02,meteohub,2013-04-01 09:47:00,
2013-04-01 05:48:00,42.6,18.1,29.91,West,270,4.0,15.0,37,0.00,,,0.02,meteohub,2013-04-01 09:48:00,
2013-04-01 05:50:00,42.6,18.1,29.91,WSW,248,7.0,15.0,37,0.00,,,0.02,meteohub,2013-04-01 09:50:00,
2013-04-01 05:52:00,42.6,18.1,29.91,WSW,248,9.0,15.0,37,0.00,,,0.02,meteohub,2013-04-01 09:52:00,
2013-04-01 05:53:00,42.6,18.1,29.91,West,270,5.0,15.0,37,0.00,,,0.02,meteohub,2013-04-01 09:53:00,
2013-04-01 05:54:00,42.6,18.1,29.91,West,270,5.0,15.0,37,0.00,,,0.02,meteohub,2013-04-01 09:54:00,
2013-04-01 05:55:00,42.6,18.1,29.91,West,270,13.0,15.0,37,0.00,,,0.02,meteohub,2013-04-01 09:55:00,
2013-04-01 05:57:00,42.6,18.1,29.91,West,270,11.0,15.0,37,0.00,,,0.02,meteohub,2013-04-01 09:57:00,
2013-04-01 05:58:00,42.6,18.9,29.91,WSW,248,8.0,15.0,38,0.00,,,0.02,meteohub,2013-04-01 09:58:00,
2013-04-01 05:59:00,42.6,18.1,29.91,WSW,248,4.0,15.0,37,0.00,,,0.02,meteohub,2013-04-01 09:59:00,
2013-04-01 06:00:00,42.6,18.1,29.91,South,180,8.0,15.0,37,0.00,,,0.02,meteohub,2013-04-01 10:00:00,
2013-04-01 06:02:00,42.6,18.1,29.91,South,180,8.0,15.0,37,0.00,,,0.02,meteohub,2013-04-01 10:02:00,
2013-04-01 06:03:00,42.6,18.1,29.91,West,270,8.0,15.0,37,0.00,,,0.02,meteohub,2013-04-01 10:03:00,
2013-04-01 06:05:00,42.6,18.9,29.91,WSW,248,6.0,15.0,38,0.00,,,0.02,meteohub,2013-04-01 10:05:00,
2013-04-01 06:08:00,42.4,18.0,29.91,WSW,248,9.0,15.0,37,0.00,,,0.02,meteohub,2013-04-01 10:08:00,
2013-04-01 06:10:00,42.4,18.7,29.91,SE,135,7.0,15.0,38,0.00,,,0.02,meteohub,2013-04-01 10:10:00,
2013-04-01 06:11:00,42.4,18.7,29.91,SE,135,7.0,15.0,38,0.00,,,0.02,meteohub,2013-04-01 10:11:00,
2013-04-01 06:13:00,42.4,18.7,29.91,West,270,6.0,15.0,38,0.00,,,0.02,meteohub,2013-04-01 10:13:00,
2013-04-01 06:14:00,42.4,18.7,29.90,WSW,248,14.0,15.0,38,0.00,,,0.02,meteohub,2013-04-01 10:14:00,
2013-04-01 06:16:00,42.4,18.7,29.90,SE,135,7.0,15.0,38,0.00,,,0.02,meteohub,2013-04-01 10:16:00,
2013-04-01 06:18:00,42.4,18.7,29.91,WSW,248,10.0,15.0,38,0.00,,,0.02,meteohub,2013-04-01 10:18:00,
2013-04-01 06:19:00,42.4,18.7,29.91,West,270,7.0,15.0,38,0.00,,,0.02,meteohub,2013-04-01 10:19:00,
2013-04-01 06:20:00,42.4,18.7,29.91,WSW,248,8.0,15.0,38,0.00,,,0.02,meteohub,2013-04-01 10:20:00,
2013-04-01 06:22:00,42.4,18.7,29.91,West,270,10.0,15.0,38,0.00,,,0.02,meteohub,2013-04-01 10:22:00,
2013-04-01 06:23:00,42.4,18.7,29.91,WSW,248,6.0,15.0,38,0.00,,,0.02,meteohub,2013-04-01 10:23:00,
2013-04-01 06:24:00,42.4,18.7,29.91,WSW,248,5.0,15.0,38,0.00,,,0.02,meteohub,2013-04-01 10:24:00,
2013-04-01 06:26:00,42.3,18.5,29.91,West,270,15.0,15.0,38,0.00,,,0.02,meteohub,2013-04-01 10:26:00,
2013-04-01 06:28:00,42.3,18.5,29.91,NW,315,8.0,15.0,38,0.00,,,0.02,meteohub,2013-04-01 10:28:00,
2013-04-01 06:29:00,42.3,18.5,29.91,West,270,12.0,15.0,38,0.00,,,0.02,meteohub,2013-04-01 10:29:00,
2013-04-01 06:31:00,42.3,18.5,29.91,WSW,248,4.0,15.0,38,0.00,,,0.02,meteohub,2013-04-01 10:31:00,
2013-04-01 06:32:00,42.3,18.5,29.91,WSW,248,4.0,15.0,38,0.00,,,0.02,meteohub,2013-04-01 10:32:00,
2013-04-01 06:35:00,42.3,18.5,29.91,West,270,17.0,17.0,38,0.00,,,0.02,meteohub,2013-04-01 10:35:00,
2013-04-01 06:37:00,42.3,18.5,29.91,WNW,293,10.0,17.0,38,0.00,,,0.02,meteohub,2013-04-01 10:37:00,
2013-04-01 06:40:00,42.3,18.5,29.91,West,270,8.0,17.0,38,0.00,,,0.02,meteohub,2013-04-01 10:40:00,
2013-04-01 06:41:00,42.3,18.5,29.91,NW,315,11.0,17.0,38,0.00,,,0.02,meteohub,2013-04-01 10:41:00,
2013-04-01 06:42:00,42.3,18.5,29.91,WSW,248,5.0,17.0,38,0.00,,,0.02,meteohub,2013-04-01 10:42:00,
2013-04-01 06:43:00,42.3,18.5,29.91,West,270,12.0,17.0,38,0.00,,,0.02,meteohub,2013-04-01 10:43:00,
2013-04-01 06:46:00,42.1,18.3,29.91,WSW,248,4.0,17.0,38,0.00,,,0.02,meteohub,2013-04-01 10:46:00,
2013-04-01 06:49:00,42.1,18.3,29.91,WSW,248,11.0,17.0,38,0.00,,,0.02,meteohub,2013-04-01 10:49:00,
2013-04-01 06:52:00,41.9,18.1,29.91,NW,315,9.0,15.0,38,0.00,,,0.02,meteohub,2013-04-01 10:52:00,
2013-04-01 06:54:00,41.9,18.1,29.91,WSW,248,5.0,15.0,38,0.00,,,0.02,meteohub,2013-04-01 10:54:00,
2013-04-01 06:56:00,41.9,18.1,29.91,West,270,8.0,12.0,38,0.00,,,0.02,meteohub,2013-04-01 10:56:00,
2013-04-01 06:57:00,41.9,18.1,29.91,WSW,248,7.0,12.0,38,0.00,,,0.02,meteohub,2013-04-01 10:57:00,
2013-04-01 06:59:00,41.9,18.1,29.91,West,270,11.0,12.0,38,0.00,,,0.02,meteohub,2013-04-01 10:59:00,
2013-04-01 07:01:00,41.9,18.1,29.91,WSW,248,7.0,11.0,38,0.00,,,0.02,meteohub,2013-04-01 11:01:00,
2013-04-01 07:02:00,41.9,18.1,29.92,West,270,17.0,17.0,38,0.00,,,0.02,meteohub,2013-04-01 11:02:00,
2013-04-01 07:03:00,41.9,18.1,29.92,West,270,17.0,17.0,38,0.00,,,0.02,meteohub,2013-04-01 11:03:00,
2013-04-01 07:05:00,41.9,18.1,29.91,WSW,248,4.0,17.0,38,0.00,,,0.02,meteohub,2013-04-01 11:05:00,
2013-04-01 07:07:00,41.9,18.1,29.91,WSW,248,10.0,17.0,38,0.00,,,0.02,meteohub,2013-04-01 11:07:00,
2013-04-01 07:08:00,41.9,18.1,29.92,West,270,7.0,17.0,38,0.00,,,0.02,meteohub,2013-04-01 11:08:00,
2013-04-01 07:10:00,41.9,18.1,29.91,WSW,248,11.0,17.0,38,0.00,,,0.02,meteohub,2013-04-01 11:10:00,
2013-04-01 07:13:00,41.9,18.1,29.91,NW,315,13.0,17.0,38,0.00,,,0.02,meteohub,2013-04-01 11:13:00,
2013-04-01 07:14:00,41.9,18.1,29.91,West,270,7.0,17.0,38,0.00,,,0.02,meteohub,2013-04-01 11:14:00,
2013-04-01 07:17:00,41.9,18.1,29.92,WSW,248,4.0,17.0,38,0.00,,,0.02,meteohub,2013-04-01 11:17:00,
2013-04-01 07:19:00,41.7,17.4,29.92,West,270,11.0,17.0,37,0.00,,,0.02,meteohub,2013-04-01 11:19:00,
2013-04-01 07:20:00,41.7,17.4,29.92,SE,135,7.0,17.0,37,0.00,,,0.02,meteohub,2013-04-01 11:20:00,
2013-04-01 07:22:00,41.7,17.4,29.92,WSW,248,15.0,15.0,37,0.00,,,0.02,meteohub,2013-04-01 11:22:00,
2013-04-01 07:25:00,41.7,17.4,29.92,West,270,11.0,15.0,37,0.00,,,0.02,meteohub,2013-04-01 11:25:00,
2013-04-01 07:26:00,41.7,17.4,29.92,NW,315,15.0,16.0,37,0.00,,,0.02,meteohub,2013-04-01 11:26:00,
2013-04-01 07:27:00,41.7,16.7,29.92,West,270,11.0,16.0,36,0.00,,,0.02,meteohub,2013-04-01 11:27:00,
2013-04-01 07:31:00,41.7,16.7,29.92,South,180,13.0,16.0,36,0.00,,,0.02,meteohub,2013-04-01 11:31:00,
2013-04-01 07:32:00,41.7,16.7,29.93,South,180,13.0,16.0,36,0.00,,,0.02,meteohub,2013-04-01 11:32:00,
2013-04-01 07:33:00,41.7,16.7,29.93,West,270,6.0,16.0,36,0.00,,,0.02,meteohub,2013-04-01 11:33:00,
2013-04-01 07:36:00,41.7,16.2,29.93,WSW,248,11.0,16.0,35,0.00,,,0.02,meteohub,2013-04-01 11:36:00,
2013-04-01 07:38:00,41.7,16.2,29.93,West,270,8.0,16.0,35,0.00,,,0.02,meteohub,2013-04-01 11:38:00,
2013-04-01 07:41:00,41.7,15.4,29.93,WSW,248,14.0,17.0,34,0.00,,,0.02,meteohub,2013-04-01 11:41:00,
2013-04-01 07:43:00,41.7,14.7,29.93,NW,315,11.0,17.0,33,0.00,,,0.02,meteohub,2013-04-01 11:43:00,
2013-04-01 07:44:00,41.7,14.7,29.93,NW,315,11.0,17.0,33,0.00,,,0.02,meteohub,2013-04-01 11:44:00,
2013-04-01 07:47:00,41.7,14.0,29.93,WSW,248,9.0,17.0,32,0.00,,,0.02,meteohub,2013-04-01 11:47:00,
2013-04-01 07:48:00,41.7,13.3,29.93,West,270,5.0,17.0,31,0.00,,,0.02,meteohub,2013-04-01 11:48:00,
2013-04-01 07:49:00,41.7,13.3,29.93,West,270,10.0,17.0,31,0.00,,,0.02,meteohub,2013-04-01 11:49:00,
2013-04-01 07:53:00,41.7,12.6,29.93,NW,315,10.0,17.0,30,0.00,,,0.02,meteohub,2013-04-01 11:53:00,
2013-04-01 07:54:00,41.7,12.6,29.93,NW,315,10.0,17.0,30,0.00,,,0.02,meteohub,2013-04-01 11:54:00,
2013-04-01 07:55:00,41.7,11.8,29.94,NW,315,13.0,17.0,29,0.00,,,0.02,meteohub,2013-04-01 11:55:00,
2013-04-01 07:59:00,41.7,11.8,29.93,WSW,248,3.0,15.0,29,0.00,,,0.02,meteohub,2013-04-01 11:59:00,
2013-04-01 08:00:00,41.5,11.7,29.94,NE,45,3.0,15.0,29,0.00,,,0.02,meteohub,2013-04-01 12:00:00,
2013-04-01 08:04:00,41.5,11.7,29.94,East,90,9.0,13.0,29,0.00,,,0.02,meteohub,2013-04-01 12:04:00,
2013-04-01 08:05:00,41.5,11.7,29.94,NW,315,12.0,13.0,29,0.00,,,0.02,meteohub,2013-04-01 12:05:00,
2013-04-01 08:09:00,41.4,10.8,29.94,North,0,14.0,14.0,28,0.00,,,0.02,meteohub,2013-04-01 12:09:00,
2013-04-01 08:10:00,41.4,9.0,29.94,West,270,12.0,14.0,26,0.00,,,0.02,meteohub,2013-04-01 12:10:00,
2013-04-01 08:13:00,41.4,5.4,29.94,East,90,13.0,14.0,22,0.00,,,0.02,meteohub,2013-04-01 12:13:00,
2013-04-01 08:14:00,41.4,2.1,29.95,NW,315,11.0,14.0,19,0.00,,,0.02,meteohub,2013-04-01 12:14:00,
2013-04-01 08:15:00,41.4,1.0,29.94,West,270,10.0,15.0,18,0.00,,,0.02,meteohub,2013-04-01 12:15:00,
2013-04-01 08:16:00,41.4,1.0,29.94,West,270,10.0,15.0,18,0.00,,,0.02,meteohub,2013-04-01 12:16:00,
2013-04-01 08:19:00,41.4,-2.9,29.95,West,270,7.0,15.0,15,0.00,,,0.02,meteohub,2013-04-01 12:19:00,
2013-04-01 08:20:00,41.4,-7.4,29.95,WSW,248,14.0,16.0,12,0.00,,,0.02,meteohub,2013-04-01 12:20:00,
2013-04-01 08:22:00,41.4,-11.2,29.95,WNW,293,11.0,16.0,10,0.00,,,0.02,meteohub,2013-04-01 12:22:00,
2013-04-01 08:25:00,41.4,41.4,29.94,NW,315,12.0,16.0,0,0.00,,,0.02,meteohub,2013-04-01 12:25:00,
2013-04-01 08:26:00,41.4,41.4,29.95,South,180,16.0,16.0,0,0.00,,,0.02,meteohub,2013-04-01 12:26:00,
2013-04-01 08:27:00,41.4,41.4,29.95,West,270,4.0,16.0,0,0.00,,,0.02,meteohub,2013-04-01 12:27:00,
2013-04-01 08:30:00,41.2,41.2,29.95,NW,315,15.0,16.0,0,0.00,,,0.02,meteohub,2013-04-01 12:30:00,
2013-04-01 08:31:00,41.2,41.2,29.95,WSW,248,9.0,16.0,0,0.00,,,0.02,meteohub,2013-04-01 12:31:00,
2013-04-01 08:33:00,41.2,41.2,29.96,West,270,8.0,16.0,0,0.00,,,0.02,meteohub,2013-04-01 12:33:00,
2013-04-01 08:36:00,41.2,41.2,29.95,NW,315,16.0,17.0,0,0.00,,,0.02,meteohub,2013-04-01 12:36:00,
2013-04-01 08:38:00,41.0,41.0,29.96,NW,315,11.0,17.0,0,0.00,,,0.02,meteohub,2013-04-01 12:38:00,
2013-04-01 08:39:00,41.0,41.0,29.96,NW,315,14.0,17.0,0,0.00,,,0.02,meteohub,2013-04-01 12:39:00,
2013-04-01 08:42:00,41.0,41.0,29.95,NW,315,6.0,17.0,0,0.00,,,0.02,meteohub,2013-04-01 12:42:00,
2013-04-01 08:43:00,40.8,40.8,29.95,North,0,8.0,17.0,0,0.00,,,0.02,meteohub,2013-04-01 12:43:00,
2013-04-01 08:45:00,40.8,40.8,29.96,NW,315,13.0,16.0,0,0.00,,,0.02,meteohub,2013-04-01 12:45:00,
2013-04-01 08:47:00,40.8,40.8,29.95,NW,315,13.0,16.0,0,0.00,,,0.02,meteohub,2013-04-01 12:47:00,
2013-04-01 08:49:00,40.8,40.8,29.96,NW,315,13.0,16.0,0,0.00,,,0.02,meteohub,2013-04-01 12:49:00,
2013-04-01 08:50:00,40.8,40.8,29.96,NW,315,13.0,16.0,0,0.00,,,0.02,meteohub,2013-04-01 12:50:00,
2013-04-01 08:53:00,40.8,40.8,29.96,NW,315,13.0,16.0,0,0.00,,,0.02,meteohub,2013-04-01 12:53:00,
2013-04-01 08:54:00,40.8,40.8,29.96,NW,315,13.0,16.0,0,0.00,,,0.02,meteohub,2013-04-01 12:54:00,
2013-04-01 08:58:00,40.5,40.5,29.96,NW,315,6.0,14.0,0,0.01,,,0.04,meteohub,2013-04-01 12:58:00,
2013-04-01 08:59:00,40.5,40.5,29.96,NW,315,10.0,14.0,0,0.01,,,0.04,meteohub,2013-04-01 12:59:00,
2013-04-01 09:00:00,40.5,40.5,29.96,NW,315,5.0,14.0,0,0.01,,,0.04,meteohub,2013-04-01 13:00:00,
2013-04-01 09:03:00,40.6,40.6,29.96,NW,315,7.0,20.0,0,0.01,,,0.04,meteohub,2013-04-01 13:03:00,
2013-04-01 09:04:00,40.6,40.6,29.96,NW,315,7.0,20.0,0,0.01,,,0.04,meteohub,2013-04-01 13:04:00,
2013-04-01 09:05:00,40.6,40.6,29.96,NW,315,7.0,20.0,0,0.01,,,0.04,meteohub,2013-04-01 13:05:00,
2013-04-01 09:07:00,40.5,40.5,29.97,West,270,15.0,20.0,0,0.01,,,0.04,meteohub,2013-04-01 13:07:00,
2013-04-01 09:09:00,40.5,40.5,29.96,West,270,15.0,20.0,0,0.01,,,0.04,meteohub,2013-04-01 13:09:00,
2013-04-01 09:10:00,40.3,40.3,29.96,NW,315,13.0,20.0,0,0.01,,,0.04,meteohub,2013-04-01 13:10:00,
2013-04-01 09:12:00,40.3,40.3,29.97,WNW,293,5.0,20.0,0,0.01,,,0.04,meteohub,2013-04-01 13:12:00,
2013-04-01 09:14:00,40.1,40.1,29.97,WSW,248,8.0,20.0,0,0.01,,,0.04,meteohub,2013-04-01 13:14:00,
2013-04-01 09:15:00,40.1,40.1,29.97,North,0,4.0,15.0,0,0.01,,,0.04,meteohub,2013-04-01 13:15:00,
2013-04-01 09:17:00,39.7,39.7,29.97,WSW,248,6.0,15.0,0,0.01,,,0.04,meteohub,2013-04-01 13:17:00,
2013-04-01 09:19:00,39.6,39.6,29.97,NW,315,10.0,15.0,0,0.01,,,0.04,meteohub,2013-04-01 13:19:00,
2013-04-01 09:20:00,39.4,39.4,29.98,South,180,5.0,15.0,0,0.01,,,0.04,meteohub,2013-04-01 13:20:00,
2013-04-01 09:22:00,39.2,39.2,29.98,NW,315,13.0,15.0,0,0.01,,,0.04,meteohub,2013-04-01 13:22:00,
2013-04-01 09:24:00,38.8,38.8,29.98,NW,315,7.0,15.0,0,0.01,,,0.04,meteohub,2013-04-01 13:24:00,
2013-04-01 09:26:00,38.5,38.5,29.98,North,0,11.0,19.0,0,0.01,,,0.04,meteohub,2013-04-01 13:26:00,
2013-04-01 09:28:00,37.9,37.9,29.98,East,90,5.0,19.0,0,0.01,,,0.04,meteohub,2013-04-01 13:28:00,
2013-04-01 09:30:00,37.0,37.0,29.99,NW,315,6.0,19.0,0,0.01,,,0.04,meteohub,2013-04-01 13:30:00,
2013-04-01 09:32:00,36.5,36.5,29.99,WSW,248,9.0,19.0,0,0.01,,,0.04,meteohub,2013-04-01 13:32:00,
2013-04-01 09:33:00,36.0,36.0,29.99,NW,315,9.0,19.0,0,0.01,,,0.04,meteohub,2013-04-01 13:33:00,
2013-04-01 09:35:00,35.4,35.4,29.99,West,270,5.0,19.0,0,0.01,,,0.04,meteohub,2013-04-01 13:35:00,
2013-04-01 09:36:00,35.2,35.2,29.99,WSW,248,8.0,19.0,0,0.01,,,0.04,meteohub,2013-04-01 13:36:00,
2013-04-01 09:37:00,34.7,34.7,29.99,NW,315,6.0,19.0,0,0.01,,,0.04,meteohub,2013-04-01 13:37:00,
2013-04-01 09:39:00,34.5,-16.4,29.99,NW,315,10.0,19.0,10,0.01,,,0.04,meteohub,2013-04-01 13:39:00,
2013-04-01 09:40:00,34.0,-13.4,29.99,WSW,248,7.0,18.0,12,0.01,,,0.04,meteohub,2013-04-01 13:40:00,
2013-04-01 09:41:00,33.8,-10.3,29.99,North,0,5.0,18.0,14,0.01,,,0.04,meteohub,2013-04-01 13:41:00,
2013-04-01 09:43:00,33.6,-9.2,29.99,NW,315,4.0,18.0,15,0.01,,,0.04,meteohub,2013-04-01 13:43:00,
2013-04-01 09:45:00,33.3,-4.5,29.99,South,180,8.0,21.0,19,0.01,,,0.04,meteohub,2013-04-01 13:45:00,
2013-04-01 09:46:00,33.3,-4.5,29.99,West,270,10.0,21.0,19,0.01,,,0.04,meteohub,2013-04-01 13:46:00,
2013-04-01 09:47:00,33.3,-3.5,29.99,NW,315,8.0,21.0,20,0.01,,,0.04,meteohub,2013-04-01 13:47:00,
2013-04-01 09:48:00,33.1,-3.6,29.99,West,270,9.0,21.0,20,0.01,,,0.04,meteohub,2013-04-01 13:48:00,
2013-04-01 09:51:00,32.9,-1.8,29.99,North,0,7.0,21.0,22,0.01,,,0.04,meteohub,2013-04-01 13:51:00,
2013-04-01 09:52:00,32.7,-2.0,29.99,NW,315,5.0,21.0,22,0.01,,,0.04,meteohub,2013-04-01 13:52:00,
2013-04-01 09:53:00,32.7,-0.9,30.00,West,270,5.0,21.0,23,0.01,,,0.04,meteohub,2013-04-01 13:53:00,
2013-04-01 09:57:00,32.5,0.7,30.00,NW,315,8.0,21.0,25,0.00,,,0.04,meteohub,2013-04-01 13:57:00,
2013-04-01 09:58:00,32.4,1.2,30.00,West,270,8.0,21.0,26,0.00,,,0.04,meteohub,2013-04-01 13:58:00,
2013-04-01 09:59:00,32.4,1.2,30.00,West,270,8.0,21.0,26,0.00,,,0.04,meteohub,2013-04-01 13:59:00,
2013-04-01 10:02:00,32.4,2.1,29.99,NW,315,6.0,14.0,27,0.00,,,0.04,meteohub,2013-04-01 14:02:00,
2013-04-01 10:04:00,32.4,2.8,30.00,West,270,8.0,14.0,28,0.00,,,0.04,meteohub,2013-04-01 14:04:00,
2013-04-01 10:05:00,32.4,2.8,29.99,NE,45,5.0,14.0,28,0.00,,,0.04,meteohub,2013-04-01 14:05:00,
2013-04-01 10:06:00,32.4,2.8,30.00,NW,315,9.0,14.0,28,0.00,,,0.04,meteohub,2013-04-01 14:06:00,
2013-04-01 10:08:00,32.2,3.6,30.00,NW,315,4.0,14.0,29,0.00,,,0.04,meteohub,2013-04-01 14:08:00,
2013-04-01 10:09:00,32.4,3.6,29.99,NW,315,5.0,14.0,29,0.00,,,0.04,meteohub,2013-04-01 14:09:00,
2013-04-01 10:11:00,32.4,4.5,29.99,North,0,8.0,12.0,30,0.00,,,0.04,meteohub,2013-04-01 14:11:00,
2013-04-01 10:12:00,32.4,4.5,30.00,North,0,10.0,12.0,30,0.00,,,0.04,meteohub,2013-04-01 14:12:00,
2013-04-01 10:13:00,32.2,4.3,29.99,West,270,2.0,12.0,30,0.00,,,0.04,meteohub,2013-04-01 14:13:00,
2013-04-01 10:15:00,32.4,4.5,29.99,NW,315,6.0,12.0,30,0.00,,,0.04,meteohub,2013-04-01 14:15:00,
2013-04-01 10:17:00,32.4,4.5,30.00,NW,315,6.0,12.0,30,0.00,,,0.04,meteohub,2013-04-01 14:17:00,
2013-04-01 10:19:00,32.5,5.2,30.00,NW,315,11.0,12.0,31,0.00,,,0.04,meteohub,2013-04-01 14:19:00,
2013-04-01 10:20:00,32.5,5.2,30.00,West,270,7.0,12.0,31,0.00,,,0.04,meteohub,2013-04-01 14:20:00,
2013-04-01 10:22:00,32.5,5.2,30.00,SE,135,3.0,10.0,31,0.00,,,0.04,meteohub,2013-04-01 14:22:00,
2013-04-01 10:24:00,32.5,5.2,30.00,NW,315,1.0,10.0,31,0.00,,,0.04,meteohub,2013-04-01 14:24:00,
2013-04-01 10:25:00,32.5,5.2,30.00,NW,315,8.0,10.0,31,0.00,,,0.04,meteohub,2013-04-01 14:25:00,
2013-04-01 10:29:00,32.4,5.7,30.00,West,270,5.0,11.0,32,0.00,,,0.04,meteohub,2013-04-01 14:29:00,
2013-04-01 10:30:00,32.4,5.7,30.00,West,270,5.0,11.0,32,0.00,,,0.04,meteohub,2013-04-01 14:30:00,
2013-04-01 10:34:00,32.4,5.7,30.00,WSW,248,5.0,11.0,32,0.00,,,0.04,meteohub,2013-04-01 14:34:00,
2013-04-01 10:35:00,32.5,5.9,30.00,North,0,8.0,8.0,32,0.00,,,0.04,meteohub,2013-04-01 14:35:00,
2013-04-01 10:36:00,32.5,5.9,30.00,West,270,5.0,8.0,32,0.00,,,0.04,meteohub,2013-04-01 14:36:00,
2013-04-01 10:40:00,32.5,5.9,30.00,West,270,5.0,8.0,32,0.00,,,0.04,meteohub,2013-04-01 14:40:00,
2013-04-01 10:41:00,32.7,6.1,30.00,WSW,248,6.0,8.0,32,0.00,,,0.04,meteohub,2013-04-01 14:41:00,
2013-04-01 10:42:00,32.7,6.8,30.00,West,270,4.0,8.0,33,0.00,,,0.04,meteohub,2013-04-01 14:42:00,
2013-04-01 10:46:00,32.9,6.3,30.01,WSW,248,4.0,9.0,32,0.00,,,0.04,meteohub,2013-04-01 14:46:00,
2013-04-01 10:47:00,33.1,6.4,30.01,North,0,7.0,9.0,32,0.00,,,0.04,meteohub,2013-04-01 14:47:00,
2013-04-01 10:48:00,33.1,6.4,30.00,NW,315,7.0,9.0,32,0.00,,,0.04,meteohub,2013-04-01 14:48:00,
2013-04-01 10:51:00,33.3,6.6,30.00,WSW,248,6.0,10.0,32,0.00,,,0.04,meteohub,2013-04-01 14:51:00,
2013-04-01 10:53:00,33.4,6.8,30.00,WSW,248,4.0,10.0,32,0.00,,,0.04,meteohub,2013-04-01 14:53:00,
2013-04-01 10:54:00,33.6,6.3,30.00,WSW,248,5.0,10.0,31,0.00,,,0.04,meteohub,2013-04-01 14:54:00,
2013-04-01 10:55:00,33.8,6.4,30.00,WSW,248,4.0,10.0,31,0.00,,,0.04,meteohub,2013-04-01 14:55:00,
2013-04-01 10:57:00,34.0,6.4,30.01,NW,315,4.0,10.0,31,0.00,,,0.04,meteohub,2013-04-01 14:57:00,
2013-04-01 10:59:00,34.2,5.9,30.00,NE,45,4.0,10.0,30,0.00,,,0.04,meteohub,2013-04-01 14:59:00,
2013-04-01 11:00:00,34.2,5.9,30.01,NW,315,3.0,10.0,30,0.00,,,0.05,meteohub,2013-04-01 15:00:00,
2013-04-01 11:04:00,34.5,5.5,30.01,NW,315,7.0,10.0,29,0.01,,,0.05,meteohub,2013-04-01 15:04:00,
2013-04-01 11:06:00,34.5,4.8,30.01,WSW,248,3.0,7.0,28,0.01,,,0.05,meteohub,2013-04-01 15:06:00,
2013-04-01 11:09:00,34.9,3.4,30.01,West,270,10.0,10.0,26,0.01,,,0.05,meteohub,2013-04-01 15:09:00,
2013-04-01 11:10:00,34.9,3.4,30.01,West,270,10.0,10.0,26,0.01,,,0.05,meteohub,2013-04-01 15:10:00,
2013-04-01 11:12:00,34.9,2.7,30.01,West,270,7.0,11.0,25,0.01,,,0.05,meteohub,2013-04-01 15:12:00,
2013-04-01 11:15:00,35.2,1.0,30.01,WSW,248,14.0,14.0,23,0.01,,,0.05,meteohub,2013-04-01 15:15:00,
2013-04-01 11:17:00,35.4,0.3,30.01,West,270,9.0,11.0,22,0.01,,,0.05,meteohub,2013-04-01 15:17:00,
2013-04-01 11:20:00,35.2,-0.8,30.01,West,270,10.0,14.0,21,0.01,,,0.05,meteohub,2013-04-01 15:20:00,
2013-04-01 11:21:00,35.4,-1.7,30.01,WSW,248,5.0,14.0,20,0.01,,,0.05,meteohub,2013-04-01 15:21:00,
2013-04-01 11:22:00,35.4,-1.7,30.01,West,270,10.0,14.0,20,0.01,,,0.05,meteohub,2013-04-01 15:22:00,
2013-04-01 11:25:00,35.4,-2.7,30.01,WSW,248,5.0,14.0,19,0.01,,,0.05,meteohub,2013-04-01 15:25:00,
2013-04-01 11:26:00,35.4,-2.7,30.01,West,270,8.0,14.0,19,0.01,,,0.05,meteohub,2013-04-01 15:26:00,
2013-04-01 11:27:00,35.2,-2.9,30.01,West,270,11.0,14.0,19,0.01,,,0.05,meteohub,2013-04-01 15:27:00,
2013-04-01 11:30:00,34.9,-3.3,30.01,West,270,6.0,14.0,19,0.01,,,0.05,meteohub,2013-04-01 15:30:00,
2013-04-01 11:32:00,34.5,-3.5,30.01,WSW,248,12.0,14.0,19,0.01,,,0.05,meteohub,2013-04-01 15:32:00,
2013-04-01 11:33:00,34.3,-3.6,30.01,South,180,9.0,14.0,19,0.01,,,0.05,meteohub,2013-04-01 15:33:00,
2013-04-01 11:36:00,34.0,-1.8,30.01,West,270,11.0,14.0,21,0.01,,,0.05,meteohub,2013-04-01 15:36:00,
2013-04-01 11:37:00,33.8,-1.1,30.01,West,270,4.0,14.0,22,0.01,,,0.05,meteohub,2013-04-01 15:37:00,
2013-04-01 11:39:00,33.6,-1.1,30.01,NW,315,12.0,14.0,22,0.01,,,0.05,meteohub,2013-04-01 15:39:00,
2013-04-01 11:40:00,33.4,-0.4,30.01,SE,135,3.0,14.0,23,0.01,,,0.05,meteohub,2013-04-01 15:40:00,
2013-04-01 11:42:00,33.1,-0.8,30.01,WSW,248,14.0,15.0,23,0.01,,,0.05,meteohub,2013-04-01 15:42:00,
2013-04-01 11:44:00,32.7,0.0,30.01,NW,315,15.0,15.0,24,0.01,,,0.05,meteohub,2013-04-01 15:44:00,
2013-04-01 11:45:00,32.7,0.7,30.02,West,270,8.0,15.0,25,0.01,,,0.05,meteohub,2013-04-01 15:45:00,
2013-04-01 11:47:00,32.5,1.4,30.02,West,270,5.0,15.0,26,0.01,,,0.05,meteohub,2013-04-01 15:47:00,
2013-04-01 11:49:00,32.5,1.4,30.02,West,270,2.0,15.0,26,0.01,,,0.05,meteohub,2013-04-01 15:49:00,
2013-04-01 11:50:00,32.5,2.3,30.02,SW,225,7.0,15.0,27,0.01,,,0.05,meteohub,2013-04-01 15:50:00,
2013-04-01 11:53:00,32.4,2.8,30.02,WNW,293,6.0,15.0,28,0.01,,,0.05,meteohub,2013-04-01 15:53:00,
2013-04-01 11:54:00,32.4,2.8,30.02,North,0,8.0,15.0,28,0.01,,,0.05,meteohub,2013-04-01 15:54:00,
2013-04-01 11:55:00,32.4,2.8,30.03,West,270,4.0,15.0,28,0.01,,,0.05,meteohub,2013-04-01 15:55:00,
2013-04-01 11:58:00,32.2,3.6,30.03,North,0,4.0,15.0,29,0.01,,,0.05,meteohub,2013-04-01 15:58:00,
2013-04-01 11:59:00,32.0,3.4,30.03,North,0,9.0,15.0,29,0.01,,,0.05,meteohub,2013-04-01 15:59:00,
2013-04-01 12:00:00,32.0,3.4,30.04,East,90,8.0,15.0,29,0.01,,,0.05,meteohub,2013-04-01 16:00:00,
2013-04-01 12:01:00,32.0,3.4,30.04,East,90,8.0,11.0,29,0.00,,,0.05,meteohub,2013-04-01 16:01:00,
2013-04-01 12:03:00,31.5,2.8,30.03,West,270,11.0,11.0,29,0.00,,,0.05,meteohub,2013-04-01 16:03:00,
2013-04-01 12:04:00,31.3,2.7,30.03,WSW,248,17.0,17.0,29,0.00,,,0.05,meteohub,2013-04-01 16:04:00,
2013-04-01 12:05:00,31.1,2.5,30.03,East,90,7.0,11.0,29,0.01,,,0.06,meteohub,2013-04-01 16:05:00,
2013-04-01 12:06:00,31.1,3.2,30.03,North,0,3.0,11.0,30,0.01,,,0.06,meteohub,2013-04-01 16:06:00,
2013-04-01 12:09:00,30.7,3.0,30.04,North,0,5.0,11.0,30,0.01,,,0.06,meteohub,2013-04-01 16:09:00,
2013-04-01 12:10:00,30.6,2.8,30.04,NW,315,5.0,17.0,30,0.01,,,0.06,meteohub,2013-04-01 16:10:00,
2013-04-01 12:12:00,30.6,2.8,30.04,NW,315,11.0,17.0,30,0.01,,,0.06,meteohub,2013-04-01 16:12:00,
2013-04-01 12:14:00,30.6,3.6,30.04,NW,315,10.0,17.0,31,0.01,,,0.06,meteohub,2013-04-01 16:14:00,
2013-04-01 12:17:00,30.6,3.6,30.04,NE,45,9.0,17.0,31,0.01,,,0.06,meteohub,2013-04-01 16:17:00,
2013-04-01 12:21:00,30.4,3.4,30.04,North,0,11.0,11.0,31,0.01,,,0.06,meteohub,2013-04-01 16:21:00,
2013-04-01 12:22:00,30.4,4.1,30.04,North,0,10.0,11.0,32,0.01,,,0.06,meteohub,2013-04-01 16:22:00,
2013-04-01 12:23:00,30.4,4.1,30.04,NW,315,9.0,11.0,32,0.01,,,0.06,meteohub,2013-04-01 16:23:00,
2013-04-01 12:26:00,30.2,3.9,30.05,NW,315,7.0,12.0,32,0.01,,,0.06,meteohub,2013-04-01 16:26:00,
2013-04-01 12:27:00,30.2,3.9,30.05,NW,315,5.0,12.0,32,0.01,,,0.06,meteohub,2013-04-01 16:27:00,
2013-04-01 12:28:00,30.2,4.5,30.04,NW,315,8.0,12.0,33,0.01,,,0.06,meteohub,2013-04-01 16:28:00,
2013-04-01 12:29:00,30.2,4.5,30.05,West,270,13.0,13.0,33,0.01,,,0.06,meteohub,2013-04-01 16:29:00,
2013-04-01 12:31:00,30.2,4.5,30.05,West,270,11.0,12.0,33,0.01,,,0.06,meteohub,2013-04-01 16:31:00,
2013-04-01 12:32:00,30.2,4.5,30.05,North,0,4.0,12.0,33,0.01,,,0.06,meteohub,2013-04-01 16:32:00,
2013-04-01 12:34:00,30.2,4.5,30.05,WSW,248,10.0,12.0,33,0.01,,,0.06,meteohub,2013-04-01 16:34:00,
2013-04-01 12:38:00,30.2,3.9,30.05,NW,315,4.0,13.0,32,0.01,,,0.06,meteohub,2013-04-01 16:38:00,
2013-04-01 12:39:00,30.2,3.9,30.05,NW,315,4.0,13.0,32,0.01,,,0.06,meteohub,2013-04-01 16:39:00,
2013-04-01 12:40:00,30.4,4.1,30.05,WSW,248,4.0,13.0,32,0.01,,,0.06,meteohub,2013-04-01 16:40:00,
2013-04-01 12:43:00,30.4,3.4,30.05,NW,315,7.0,13.0,31,0.01,,,0.06,meteohub,2013-04-01 16:43:00,
2013-04-01 12:44:00,30.4,3.4,30.05,North,0,14.0,14.0,31,0.01,,,0.06,meteohub,2013-04-01 16:44:00,
2013-04-01 12:45:00,30.4,2.7,30.05,West,270,14.0,14.0,30,0.01,,,0.06,meteohub,2013-04-01 16:45:00,
2013-04-01 12:48:00,30.4,1.9,30.05,West,270,12.0,12.0,29,0.01,,,0.06,meteohub,2013-04-01 16:48:00,
2013-04-01 12:50:00,30.4,1.2,30.05,NW,315,11.0,11.0,28,0.01,,,0.06,meteohub,2013-04-01 16:50:00,
2013-04-01 12:54:00,30.4,-2.9,30.06,North,0,8.0,14.0,23,0.01,,,0.06,meteohub,2013-04-01 16:54:00,
2013-04-01 12:55:00,30.4,-4.0,30.05,NW,315,5.0,14.0,22,0.01,,,0.06,meteohub,2013-04-01 16:55:00,
2013-04-01 12:56:00,30.4,-4.9,30.05,NW,315,13.0,14.0,21,0.01,,,0.06,meteohub,2013-04-01 16:56:00,
2013-04-01 12:59:00,30.6,-8.0,30.04,West,270,12.0,14.0,18,0.01,,,0.06,meteohub,2013-04-01 16:59:00,
2013-04-01 13:00:00,30.6,-9.0,30.05,West,270,10.0,14.0,17,0.01,,,0.06,meteohub,2013-04-01 17:00:00,
2013-04-01 13:01:00,30.6,-9.0,30.05,West,270,10.0,14.0,17,0.01,,,0.06,meteohub,2013-04-01 17:01:00,
2013-04-01 13:02:00,30.6,-13.0,30.05,WSW,248,9.0,14.0,14,0.01,,,0.06,meteohub,2013-04-01 17:02:00,
2013-04-01 13:04:00,30.7,-14.3,30.05,NE,45,8.0,14.0,13,0.01,,,0.06,meteohub,2013-04-01 17:04:00,
2013-04-01 13:06:00,30.9,-15.7,30.06,WSW,248,5.0,13.0,12,0.00,,,0.06,meteohub,2013-04-01 17:06:00,
2013-04-01 13:07:00,31.1,-17.3,30.06,NW,315,4.0,13.0,11,0.00,,,0.06,meteohub,2013-04-01 17:07:00,
2013-04-01 13:09:00,31.6,-18.8,30.05,WSW,248,2.0,13.0,10,0.00,,,0.06,meteohub,2013-04-01 17:09:00,
2013-04-01 13:11:00,31.8,-16.8,30.05,North,0,4.0,13.0,11,0.00,,,0.06,meteohub,2013-04-01 17:11:00,
2013-04-01 13:12:00,31.8,-16.8,30.05,North,0,4.0,13.0,11,0.00,,,0.06,meteohub,2013-04-01 17:12:00,
2013-04-01 13:15:00,31.8,31.8,30.05,NW,315,8.0,13.0,0,0.00,,,0.06,meteohub,2013-04-01 17:15:00,
2013-04-01 13:17:00,31.8,31.8,30.05,NW,315,15.0,15.0,0,0.00,,,0.06,meteohub,2013-04-01 17:17:00,
2013-04-01 13:20:00,32.2,32.2,30.05,West,270,3.0,15.0,0,0.00,,,0.06,meteohub,2013-04-01 17:20:00,
2013-04-01 13:22:00,32.5,32.5,30.05,NE,45,4.0,15.0,0,0.00,,,0.06,meteohub,2013-04-01 17:22:00,
2013-04-01 13:24:00,32.9,32.9,30.05,NW,315,8.0,15.0,0,0.00,,,0.06,meteohub,2013-04-01 17:24:00,
2013-04-01 13:25:00,33.3,33.3,30.05,NW,315,8.0,15.0,0,0.00,,,0.06,meteohub,2013-04-01 17:25:00,
2013-04-01 13:27:00,33.3,33.3,30.05,WSW,248,5.0,15.0,0,0.00,,,0.06,meteohub,2013-04-01 17:27:00,
2013-04-01 13:29:00,33.3,33.3,30.05,West,270,13.0,15.0,0,0.00,,,0.06,meteohub,2013-04-01 17:29:00,
2013-04-01 13:30:00,33.3,33.3,30.05,NW,315,4.0,15.0,0,0.00,,,0.06,meteohub,2013-04-01 17:30:00,
2013-04-01 13:33:00,33.6,33.6,30.05,North,0,2.0,15.0,0,0.00,,,0.06,meteohub,2013-04-01 17:33:00,
2013-04-01 13:34:00,33.8,33.8,30.05,West,270,4.0,15.0,0,0.00,,,0.06,meteohub,2013-04-01 17:34:00,
2013-04-01 13:35:00,33.8,33.8,30.05,NE,45,4.0,13.0,0,0.00,,,0.06,meteohub,2013-04-01 17:35:00,
2013-04-01 13:38:00,34.2,34.2,30.05,West,270,8.0,13.0,0,0.00,,,0.06,meteohub,2013-04-01 17:38:00,
2013-04-01 13:40:00,34.2,34.2,30.05,NW,315,13.0,13.0,0,0.00,,,0.06,meteohub,2013-04-01 17:40:00,
2013-04-01 13:41:00,34.3,34.3,30.05,West,270,7.0,13.0,0,0.00,,,0.06,meteohub,2013-04-01 17:41:00,
2013-04-01 13:43:00,34.7,34.7,30.05,West,270,4.0,13.0,0,0.00,,,0.06,meteohub,2013-04-01 17:43:00,
2013-04-01 13:46:00,34.9,34.9,30.05,West,270,6.0,13.0,0,0.00,,,0.06,meteohub,2013-04-01 17:46:00,
2013-04-01 13:49:00,35.2,35.2,30.05,SE,135,8.0,13.0,0,0.00,,,0.06,meteohub,2013-04-01 17:49:00,
2013-04-01 13:52:00,35.1,35.1,30.05,NW,315,15.0,15.0,0,0.01,,,0.07,meteohub,2013-04-01 17:52:00,
2013-04-01 13:54:00,34.7,34.7,30.05,West,270,8.0,13.0,0,0.01,,,0.07,meteohub,2013-04-01 17:54:00,
2013-04-01 13:57:00,34.7,34.7,30.05,West,270,3.0,16.0,0,0.01,,,0.07,meteohub,2013-04-01 17:57:00,
2013-04-01 13:58:00,34.7,34.7,30.05,NW,315,4.0,16.0,0,0.01,,,0.07,meteohub,2013-04-01 17:58:00,
2013-04-01 14:01:00,34.7,34.7,30.05,SE,135,3.0,16.0,0,0.01,,,0.07,meteohub,2013-04-01 18:01:00,
2013-04-01 14:02:00,35.2,35.2,30.05,North,0,7.0,16.0,0,0.01,,,0.07,meteohub,2013-04-01 18:02:00,
2013-04-01 14:03:00,35.2,35.2,30.05,North,0,7.0,16.0,0,0.01,,,0.07,meteohub,2013-04-01 18:03:00,
2013-04-01 14:06:00,35.6,35.6,30.05,NW,315,12.0,15.0,0,0.01,,,0.07,meteohub,2013-04-01 18:06:00,
2013-04-01 14:08:00,35.8,35.8,30.05,WSW,248,6.0,15.0,0,0.01,,,0.07,meteohub,2013-04-01 18:08:00,
2013-04-01 14:12:00,36.1,36.1,30.05,NW,315,5.0,12.0,0,0.01,,,0.07,meteohub,2013-04-01 18:12:00,
2013-04-01 14:13:00,36.1,36.1,30.05,North,0,9.0,12.0,0,0.01,,,0.07,meteohub,2013-04-01 18:13:00,
2013-04-01 14:14:00,36.1,36.1,30.05,West,270,7.0,12.0,0,0.01,,,0.07,meteohub,2013-04-01 18:14:00,
2013-04-01 14:17:00,36.7,36.7,30.05,NW,315,10.0,14.0,0,0.01,,,0.07,meteohub,2013-04-01 18:17:00,
2013-04-01 14:18:00,36.9,36.9,30.05,WNW,293,17.0,17.0,0,0.01,,,0.07,meteohub,2013-04-01 18:18:00,
2013-04-01 14:19:00,37.0,37.0,30.05,NW,315,5.0,14.0,0,0.01,,,0.07,meteohub,2013-04-01 18:19:00,
2013-04-01 14:20:00,37.0,37.0,30.05,West,270,9.0,17.0,0,0.01,,,0.07,meteohub,2013-04-01 18:20:00,
2013-04-01 14:22:00,36.7,36.7,30.05,West,270,14.0,17.0,0,0.01,,,0.07,meteohub,2013-04-01 18:22:00,
2013-04-01 14:24:00,36.7,36.7,30.05,West,270,6.0,17.0,0,0.01,,,0.07,meteohub,2013-04-01 18:24:00,
2013-04-01 14:27:00,37.4,37.4,30.05,NW,315,11.0,17.0,0,0.01,,,0.07,meteohub,2013-04-01 18:27:00,
2013-04-01 14:28:00,37.8,37.8,30.05,NW,315,5.0,17.0,0,0.01,,,0.07,meteohub,2013-04-01 18:28:00,
2013-04-01 14:29:00,37.8,37.8,30.05,NW,315,12.0,17.0,0,0.01,,,0.07,meteohub,2013-04-01 18:29:00,
2013-04-01 14:32:00,38.5,38.5,30.05,South,180,11.0,17.0,0,0.01,,,0.07,meteohub,2013-04-01 18:32:00,
2013-04-01 14:33:00,38.5,38.5,30.05,South,180,11.0,17.0,0,0.01,,,0.07,meteohub,2013-04-01 18:33:00,
2013-04-01 14:34:00,38.8,38.8,30.05,North,0,6.0,17.0,0,0.01,,,0.07,meteohub,2013-04-01 18:34:00,
2013-04-01 14:36:00,39.2,39.2,30.05,SE,135,11.0,15.0,0,0.01,,,0.07,meteohub,2013-04-01 18:36:00,
2013-04-01 14:38:00,39.0,39.0,30.05,NE,45,22.0,22.0,0,0.01,,,0.07,meteohub,2013-04-01 18:38:00,
2013-04-01 14:39:00,39.0,39.0,30.05,NE,45,22.0,22.0,0,0.01,,,0.07,meteohub,2013-04-01 18:39:00,
2013-04-01 14:40:00,38.8,38.8,30.05,NW,315,17.0,22.0,0,0.01,,,0.07,meteohub,2013-04-01 18:40:00,
2013-04-01 14:42:00,38.7,38.7,30.05,East,90,15.0,22.0,0,0.01,,,0.07,meteohub,2013-04-01 18:42:00,
2013-04-01 14:44:00,39.0,39.0,30.05,North,0,14.0,22.0,0,0.01,,,0.07,meteohub,2013-04-01 18:44:00,
2013-04-01 14:45:00,39.4,39.4,30.05,NW,315,8.0,22.0,0,0.01,,,0.07,meteohub,2013-04-01 18:45:00,
2013-04-01 14:47:00,39.4,39.4,30.05,NW,315,8.0,22.0,0,0.01,,,0.07,meteohub,2013-04-01 18:47:00,
2013-04-01 14:49:00,39.9,39.9,30.05,East,90,19.0,22.0,0,0.01,,,0.07,meteohub,2013-04-01 18:49:00,
2013-04-01 14:50:00,39.7,39.7,30.06,West,270,14.0,22.0,0,0.00,,,0.07,meteohub,2013-04-01 18:50:00,
2013-04-01 14:52:00,39.7,39.7,30.05,North,0,21.0,22.0,0,0.00,,,0.07,meteohub,2013-04-01 18:52:00,
2013-04-01 14:55:00,39.2,39.2,30.05,WNW,293,10.0,22.0,0,0.00,,,0.07,meteohub,2013-04-01 18:55:00,
2013-04-01 14:56:00,39.4,39.4,30.05,South,180,8.0,21.0,0,0.00,,,0.07,meteohub,2013-04-01 18:56:00,
2013-04-01 14:58:00,39.4,39.4,30.05,West,270,8.0,21.0,0,0.00,,,0.07,meteohub,2013-04-01 18:58:00,
2013-04-01 14:59:00,39.4,39.4,30.05,East,90,4.0,21.0,0,0.00,,,0.07,meteohub,2013-04-01 18:59:00,
2013-04-01 15:00:00,39.4,39.4,30.05,East,90,4.0,21.0,0,0.00,,,0.07,meteohub,2013-04-01 19:00:00,
2013-04-01 15:02:00,39.4,39.4,30.05,NW,315,9.0,21.0,0,0.00,,,0.07,meteohub,2013-04-01 19:02:00,
2013-04-01 15:03:00,39.0,39.0,30.05,NW,315,16.0,21.0,0,0.00,,,0.07,meteohub,2013-04-01 19:03:00,
2013-04-01 15:04:00,38.8,38.8,30.05,South,180,13.0,21.0,0,0.00,,,0.07,meteohub,2013-04-01 19:04:00,
2013-04-01 15:05:00,38.7,38.7,30.05,NW,315,8.0,21.0,0,0.00,,,0.07,meteohub,2013-04-01 19:05:00,
2013-04-01 15:07:00,39.0,39.0,30.05,West,270,11.0,21.0,0,0.00,,,0.07,meteohub,2013-04-01 19:07:00,
2013-04-01 15:08:00,39.0,39.0,30.04,NW,315,19.0,21.0,0,0.00,,,0.07,meteohub,2013-04-01 19:08:00,
2013-04-01 15:09:00,39.2,39.2,30.05,NW,315,9.0,21.0,0,0.00,,,0.07,meteohub,2013-04-01 19:09:00,
2013-04-01 15:10:00,39.7,39.7,30.05,West,270,15.0,19.0,0,0.00,,,0.07,meteohub,2013-04-01 19:10:00,
2013-04-01 15:13:00,39.9,39.9,30.05,West,270,7.0,19.0,0,0.00,,,0.07,meteohub,2013-04-01 19:13:00,
2013-04-01 15:15:00,40.1,40.1,30.05,NW,315,16.0,19.0,0,0.01,,,0.08,meteohub,2013-04-01 19:15:00,
2013-04-01 15:17:00,38.8,38.8,30.04,NW,315,15.0,19.0,0,0.01,,,0.08,meteohub,2013-04-01 19:17:00,
2013-04-01 15:18:00,38.3,38.3,30.05,North,0,11.0,19.0,0,0.01,,,0.08,meteohub,2013-04-01 19:18:00,
2013-04-01 15:20:00,37.9,37.9,30.05,NW,315,8.0,19.0,0,0.01,,,0.08,meteohub,2013-04-01 19:20:00,
2013-04-01 15:22:00,37.6,37.6,30.05,WSW,248,11.0,19.0,0,0.01,,,0.08,meteohub,2013-04-01 19:22:00,
2013-04-01 15:23:00,37.2,37.2,30.05,West,270,12.0,19.0,0,0.01,,,0.08,meteohub,2013-04-01 19:23:00,
2013-04-01 15:24:00,37.2,37.2,30.05,West,270,8.0,19.0,0,0.01,,,0.08,meteohub,2013-04-01 19:24:00,
2013-04-01 15:25:00,37.2,37.2,30.05,SE,135,11.0,18.0,0,0.01,,,0.08,meteohub,2013-04-01 19:25:00,
2013-04-01 15:27:00,37.0,37.0,30.06,WNW,293,8.0,18.0,0,0.01,,,0.08,meteohub,2013-04-01 19:27:00,
2013-04-01 15:28:00,37.0,37.0,30.06,West,270,11.0,18.0,0,0.01,,,0.08,meteohub,2013-04-01 19:28:00,
2013-04-01 15:29:00,37.0,37.0,30.06,West,270,11.0,18.0,0,0.01,,,0.08,meteohub,2013-04-01 19:29:00,
2013-04-01 15:30:00,37.2,37.2,30.05,WSW,248,9.0,18.0,0,0.01,,,0.08,meteohub,2013-04-01 19:30:00,
2013-04-01 15:32:00,38.3,38.3,30.06,SE,135,12.0,18.0,0,0.01,,,0.08,meteohub,2013-04-01 19:32:00,
2013-04-01 15:34:00,39.0,39.0,30.05,NW,315,16.0,18.0,0,0.01,,,0.08,meteohub,2013-04-01 19:34:00,
2013-04-01 15:36:00,40.1,40.1,30.05,North,0,11.0,16.0,0,0.01,,,0.08,meteohub,2013-04-01 19:36:00,
2013-04-01 15:38:00,40.8,40.8,30.05,NW,315,17.0,17.0,0,0.01,,,0.08,meteohub,2013-04-01 19:38:00,
2013-04-01 15:39:00,40.5,40.5,30.05,West,270,15.0,16.0,0,0.01,,,0.08,meteohub,2013-04-01 19:39:00,
2013-04-01 15:41:00,39.7,39.7,30.05,NW,315,4.0,16.0,0,0.01,,,0.08,meteohub,2013-04-01 19:41:00,
2013-04-01 15:43:00,39.6,39.6,30.05,NW,315,12.0,16.0,0,0.01,,,0.08,meteohub,2013-04-01 19:43:00,
2013-04-01 15:44:00,39.0,39.0,30.05,West,270,11.0,16.0,0,0.01,,,0.08,meteohub,2013-04-01 19:44:00,
2013-04-01 15:45:00,38.8,38.8,30.06,NW,315,8.0,17.0,0,0.01,,,0.08,meteohub,2013-04-01 19:45:00,
2013-04-01 15:47:00,38.3,38.3,30.05,North,0,7.0,17.0,0,0.01,,,0.08,meteohub,2013-04-01 19:47:00,
2013-04-01 15:48:00,38.5,38.5,30.05,NW,315,11.0,17.0,0,0.01,,,0.08,meteohub,2013-04-01 19:48:00,
2013-04-01 15:50:00,39.0,39.0,30.06,WSW,248,7.0,17.0,0,0.01,,,0.08,meteohub,2013-04-01 19:50:00,
2013-04-01 15:53:00,40.3,40.3,30.06,West,270,9.0,17.0,0,0.01,,,0.08,meteohub,2013-04-01 19:53:00,
2013-04-01 15:54:00,40.5,40.5,30.05,West,270,11.0,17.0,0,0.01,,,0.08,meteohub,2013-04-01 19:54:00,
2013-04-01 15:55:00,40.8,40.8,30.06,North,0,8.0,17.0,0,0.01,,,0.08,meteohub,2013-04-01 19:55:00,
2013-04-01 15:57:00,41.2,41.2,30.06,WSW,248,10.0,17.0,0,0.01,,,0.08,meteohub,2013-04-01 19:57:00,
2013-04-01 15:58:00,41.4,41.4,30.05,West,270,12.0,17.0,0,0.01,,,0.08,meteohub,2013-04-01 19:58:00,
2013-04-01 15:59:00,41.2,41.2,30.06,WSW,248,5.0,17.0,0,0.01,,,0.08,meteohub,2013-04-01 19:59:00,
2013-04-01 16:00:00,41.0,41.0,30.06,WSW,248,7.0,17.0,0,0.01,,,0.08,meteohub,2013-04-01 20:00:00,
2013-04-01 16:02:00,40.3,40.3,30.06,West,270,11.0,17.0,0,0.01,,,0.08,meteohub,2013-04-01 20:02:00,
2013-04-01 16:03:00,39.2,39.2,30.06,WSW,248,17.0,17.0,0,0.01,,,0.08,meteohub,2013-04-01 20:03:00,
2013-04-01 16:06:00,38.7,38.7,30.06,NE,45,12.0,17.0,0,0.01,,,0.08,meteohub,2013-04-01 20:06:00,
2013-04-01 16:09:00,38.1,38.1,30.06,NW,315,15.0,17.0,0,0.01,,,0.08,meteohub,2013-04-01 20:09:00,
2013-04-01 16:10:00,38.1,38.1,30.06,NW,315,11.0,17.0,0,0.01,,,0.08,meteohub,2013-04-01 20:10:00,
2013-04-01 16:11:00,37.9,37.9,30.06,East,90,8.0,17.0,0,0.01,,,0.08,meteohub,2013-04-01 20:11:00,
2013-04-01 16:13:00,39.2,39.2,30.06,North,0,15.0,17.0,0,0.01,,,0.08,meteohub,2013-04-01 20:13:00,
2013-04-01 16:14:00,39.6,39.6,30.06,NE,45,9.0,17.0,0,0.01,,,0.08,meteohub,2013-04-01 20:14:00,
2013-04-01 16:15:00,39.7,39.7,30.06,North,0,18.0,18.0,0,0.00,,,0.08,meteohub,2013-04-01 20:15:00,
2013-04-01 16:16:00,39.7,39.7,30.06,North,0,18.0,18.0,0,0.00,,,0.08,meteohub,2013-04-01 20:16:00,
2013-04-01 16:18:00,41.0,41.0,30.06,North,0,8.0,17.0,0,0.00,,,0.08,meteohub,2013-04-01 20:18:00,
2013-04-01 16:19:00,41.0,41.0,30.06,East,90,17.0,17.0,0,0.00,,,0.08,meteohub,2013-04-01 20:19:00,
2013-04-01 16:22:00,41.2,41.2,30.06,West,270,13.0,18.0,0,0.00,,,0.08,meteohub,2013-04-01 20:22:00,
2013-04-01 16:24:00,41.2,41.2,30.06,NW,315,11.0,18.0,0,0.00,,,0.08,meteohub,2013-04-01 20:24:00,
2013-04-01 16:25:00,40.6,40.6,30.06,WSW,248,15.0,18.0,0,0.00,,,0.08,meteohub,2013-04-01 20:25:00,
2013-04-01 16:27:00,40.1,40.1,30.06,West,270,8.0,18.0,0,0.00,,,0.08,meteohub,2013-04-01 20:27:00,
2013-04-01 16:28:00,39.9,39.9,30.06,NW,315,15.0,18.0,0,0.00,,,0.08,meteohub,2013-04-01 20:28:00,
2013-04-01 16:29:00,39.9,39.9,30.06,South,180,4.0,18.0,0,0.00,,,0.08,meteohub,2013-04-01 20:29:00,
2013-04-01 16:30:00,40.1,40.1,30.06,NW,315,13.0,18.0,0,0.00,,,0.08,meteohub,2013-04-01 20:30:00,
2013-04-01 16:32:00,40.6,40.6,30.06,NW,315,11.0,18.0,0,0.00,,,0.08,meteohub,2013-04-01 20:32:00,
2013-04-01 16:33:00,40.6,40.6,30.06,WSW,248,11.0,18.0,0,0.00,,,0.08,meteohub,2013-04-01 20:33:00,
2013-04-01 16:34:00,40.3,40.3,30.06,North,0,3.0,18.0,0,0.00,,,0.08,meteohub,2013-04-01 20:34:00,
2013-04-01 16:37:00,40.6,40.6,30.06,WSW,248,4.0,18.0,0,0.00,,,0.08,meteohub,2013-04-01 20:37:00,
2013-04-01 16:39:00,40.1,40.1,30.06,West,270,11.0,18.0,0,0.00,,,0.08,meteohub,2013-04-01 20:39:00,
2013-04-01 16:42:00,40.6,40.6,30.06,WSW,248,9.0,16.0,0,0.00,,,0.08,meteohub,2013-04-01 20:42:00,
2013-04-01 16:43:00,40.6,40.6,30.06,WSW,248,9.0,16.0,0,0.00,,,0.08,meteohub,2013-04-01 20:43:00,
2013-04-01 16:44:00,41.2,41.2,30.06,South,180,14.0,16.0,0,0.00,,,0.08,meteohub,2013-04-01 20:44:00,
2013-04-01 16:48:00,40.6,40.6,30.06,West,270,2.0,17.0,0,0.00,,,0.08,meteohub,2013-04-01 20:48:00,
2013-04-01 16:50:00,40.1,40.1,30.07,South,180,11.0,17.0,0,0.00,,,0.08,meteohub,2013-04-01 20:50:00,
2013-04-01 16:52:00,39.9,39.9,30.06,NW,315,13.0,17.0,0,0.00,,,0.08,meteohub,2013-04-01 20:52:00,
2013-04-01 16:53:00,40.3,40.3,30.06,NW,315,13.0,17.0,0,0.00,,,0.08,meteohub,2013-04-01 20:53:00,
2013-04-01 16:55:00,40.5,40.5,30.07,WSW,248,14.0,17.0,0,0.00,,,0.08,meteohub,2013-04-01 20:55:00,
2013-04-01 16:56:00,40.6,40.6,30.07,North,0,10.0,17.0,0,0.00,,,0.08,meteohub,2013-04-01 20:56:00,
2013-04-01 16:57:00,40.8,40.8,30.07,NW,315,17.0,17.0,0,0.00,,,0.08,meteohub,2013-04-01 20:57:00,
2013-04-01 16:59:00,40.8,40.8,30.07,NW,315,16.0,17.0,0,0.00,,,0.08,meteohub,2013-04-01 20:59:00,
2013-04-01 17:00:00,40.8,40.8,30.07,NW,315,13.0,17.0,0,0.00,,,0.08,meteohub,2013-04-01 21:00:00,
2013-04-01 17:01:00,40.6,40.6,30.06,South,180,7.0,17.0,0,0.00,,,0.08,meteohub,2013-04-01 21:01:00,
2013-04-01 17:04:00,40.6,40.6,30.07,West,270,16.0,17.0,0,0.00,,,0.08,meteohub,2013-04-01 21:04:00,
2013-04-01 17:05:00,40.8,40.8,30.07,NW,315,13.0,17.0,0,0.00,,,0.08,meteohub,2013-04-01 21:05:00,
2013-04-01 17:07:00,40.8,40.8,30.07,North,0,10.0,17.0,0,0.00,,,0.08,meteohub,2013-04-01 21:07:00,
2013-04-01 17:09:00,41.0,41.0,30.07,West,270,11.0,17.0,0,0.00,,,0.08,meteohub,2013-04-01 21:09:00,
2013-04-01 17:10:00,40.6,40.6,30.07,NW,315,6.0,17.0,0,0.00,,,0.08,meteohub,2013-04-01 21:10:00,
2013-04-01 17:12:00,40.6,40.6,30.07,NW,315,10.0,17.0,0,0.00,,,0.08,meteohub,2013-04-01 21:12:00,
2013-04-01 17:14:00,41.2,41.2,30.07,NW,315,11.0,17.0,0,0.00,,,0.08,meteohub,2013-04-01 21:14:00,
2013-04-01 17:15:00,41.2,41.2,30.07,NW,315,11.0,17.0,0,0.00,,,0.08,meteohub,2013-04-01 21:15:00,
2013-04-01 17:16:00,41.2,41.2,30.07,NW,315,11.0,17.0,0,0.00,,,0.08,meteohub,2013-04-01 21:16:00,
2013-04-01 17:17:00,41.5,41.5,30.07,WSW,248,18.0,18.0,0,0.00,,,0.08,meteohub,2013-04-01 21:17:00,
2013-04-01 17:19:00,41.4,41.4,30.07,NW,315,8.0,17.0,0,0.00,,,0.08,meteohub,2013-04-01 21:19:00,
2013-04-01 17:21:00,41.7,41.7,30.08,NE,45,8.0,18.0,0,0.00,,,0.08,meteohub,2013-04-01 21:21:00,
2013-04-01 17:22:00,41.7,41.7,30.08,NE,45,8.0,18.0,0,0.00,,,0.08,meteohub,2013-04-01 21:22:00,
2013-04-01 17:23:00,41.9,41.9,30.07,West,270,17.0,18.0,0,0.00,,,0.08,meteohub,2013-04-01 21:23:00,
2013-04-01 17:25:00,41.9,41.9,30.07,West,270,9.0,18.0,0,0.00,,,0.08,meteohub,2013-04-01 21:25:00,
2013-04-01 17:27:00,41.9,41.9,30.07,NW,315,8.0,18.0,0,0.00,,,0.08,meteohub,2013-04-01 21:27:00,
2013-04-01 17:28:00,41.7,41.7,30.08,NE,45,6.0,18.0,0,0.00,,,0.08,meteohub,2013-04-01 21:28:00,
2013-04-01 17:30:00,41.5,41.5,30.08,NW,315,17.0,18.0,0,0.00,,,0.08,meteohub,2013-04-01 21:30:00,
2013-04-01 17:32:00,41.9,41.9,30.08,WSW,248,8.0,20.0,0,0.00,,,0.08,meteohub,2013-04-01 21:32:00,
2013-04-01 17:33:00,41.9,41.9,30.08,West,270,5.0,20.0,0,0.00,,,0.08,meteohub,2013-04-01 21:33:00,
2013-04-01 17:35:00,41.7,41.7,30.08,NW,315,10.0,20.0,0,0.00,,,0.08,meteohub,2013-04-01 21:35:00,
2013-04-01 17:38:00,41.5,41.5,30.08,West,270,21.0,21.0,0,0.00,,,0.08,meteohub,2013-04-01 21:38:00,
2013-04-01 17:40:00,41.2,41.2,30.08,NW,315,4.0,21.0,0,0.00,,,0.08,meteohub,2013-04-01 21:40:00,
2013-04-01 17:43:00,41.0,41.0,30.08,NW,315,15.0,21.0,0,0.00,,,0.08,meteohub,2013-04-01 21:43:00,
2013-04-01 17:44:00,41.0,41.0,30.08,NW,315,15.0,21.0,0,0.00,,,0.08,meteohub,2013-04-01 21:44:00,
2013-04-01 17:45:00,40.3,40.3,30.08,West,270,13.0,21.0,0,0.00,,,0.08,meteohub,2013-04-01 21:45:00,
2013-04-01 17:46:00,40.3,40.3,30.08,West,270,13.0,21.0,0,0.00,,,0.08,meteohub,2013-04-01 21:46:00,
2013-04-01 17:49:00,38.5,38.5,30.09,NW,315,6.0,21.0,0,0.00,,,0.08,meteohub,2013-04-01 21:49:00,
2013-04-01 17:52:00,39.0,39.0,30.08,West,270,9.0,21.0,0,0.00,,,0.08,meteohub,2013-04-01 21:52:00,
2013-04-01 17:54:00,39.4,39.4,30.08,North,0,12.0,21.0,0,0.00,,,0.08,meteohub,2013-04-01 21:54:00,
2013-04-01 17:55:00,39.4,39.4,30.08,North,0,12.0,21.0,0,0.00,,,0.08,meteohub,2013-04-01 21:55:00,
2013-04-01 17:57:00,38.8,38.8,30.08,North,0,16.0,16.0,0,0.00,,,0.08,meteohub,2013-04-01 21:57:00,
2013-04-01 18:00:00,39.0,39.0,30.08,NW,315,8.0,15.0,0,0.00,,,0.08,meteohub,2013-04-01 22:00:00,
2013-04-01 18:02:00,39.2,39.2,30.08,NW,315,8.0,19.0,0,0.00,,,0.08,meteohub,2013-04-01 22:02:00,
2013-04-01 18:03:00,39.4,39.4,30.08,NW,315,8.0,19.0,0,0.00,,,0.08,meteohub,2013-04-01 22:03:00,
2013-04-01 18:05:00,39.4,39.4,30.08,NW,315,11.0,19.0,0,0.00,,,0.08,meteohub,2013-04-01 22:05:00,
2013-04-01 18:06:00,39.4,39.4,30.08,West,270,8.0,19.0,0,0.00,,,0.08,meteohub,2013-04-01 22:06:00,
2013-04-01 18:08:00,39.4,39.4,30.08,North,0,12.0,19.0,0,0.00,,,0.08,meteohub,2013-04-01 22:08:00,
2013-04-01 18:12:00,39.4,39.4,30.09,NW,315,10.0,19.0,0,0.00,,,0.08,meteohub,2013-04-01 22:12:00,
2013-04-01 18:13:00,39.4,39.4,30.09,West,270,11.0,19.0,0,0.00,,,0.08,meteohub,2013-04-01 22:13:00,
2013-04-01 18:15:00,39.4,39.4,30.09,North,0,8.0,13.0,0,0.00,,,0.08,meteohub,2013-04-01 22:15:00,
2013-04-01 18:17:00,39.0,39.0,30.09,NW,315,15.0,15.0,0,0.00,,,0.08,meteohub,2013-04-01 22:17:00,
2013-04-01 18:18:00,38.7,38.7,30.09,SE,135,11.0,13.0,0,0.00,,,0.08,meteohub,2013-04-01 22:18:00,
2013-04-01 18:20:00,38.3,38.3,30.09,NW,315,11.0,15.0,0,0.00,,,0.08,meteohub,2013-04-01 22:20:00,
2013-04-01 18:22:00,38.5,38.5,30.09,NW,315,6.0,15.0,0,0.00,,,0.08,meteohub,2013-04-01 22:22:00,
2013-04-01 18:23:00,38.5,38.5,30.09,WSW,248,8.0,15.0,0,0.00,,,0.08,meteohub,2013-04-01 22:23:00,
2013-04-01 18:25:00,38.3,38.3,30.09,East,90,9.0,15.0,0,0.00,,,0.08,meteohub,2013-04-01 22:25:00,
2013-04-01 18:27:00,37.8,37.8,30.09,West,270,8.0,15.0,0,0.00,,,0.08,meteohub,2013-04-01 22:27:00,
2013-04-01 18:28:00,37.6,37.6,30.09,East,90,4.0,15.0,0,0.00,,,0.08,meteohub,2013-04-01 22:28:00,
2013-04-01 18:29:00,37.6,37.6,30.09,West,270,4.0,15.0,0,0.00,,,0.08,meteohub,2013-04-01 22:29:00,
2013-04-01 18:32:00,37.4,37.4,30.09,West,270,11.0,15.0,0,0.00,,,0.08,meteohub,2013-04-01 22:32:00,
2013-04-01 18:33:00,37.4,37.4,30.09,West,270,7.0,15.0,0,0.00,,,0.08,meteohub,2013-04-01 22:33:00,
2013-04-01 18:35:00,36.9,36.9,30.09,West,270,6.0,15.0,0,0.00,,,0.08,meteohub,2013-04-01 22:35:00,
2013-04-01 18:37:00,36.1,36.1,30.09,West,270,6.0,14.0,0,0.00,,,0.08,meteohub,2013-04-01 22:37:00,
2013-04-01 18:38:00,35.6,35.6,30.09,WNW,293,10.0,14.0,0,0.00,,,0.08,meteohub,2013-04-01 22:38:00,
2013-04-01 18:40:00,35.6,35.6,30.10,NW,315,6.0,14.0,0,0.00,,,0.08,meteohub,2013-04-01 22:40:00,
2013-04-01 18:43:00,35.6,35.6,30.10,North,0,7.0,11.0,0,0.00,,,0.08,meteohub,2013-04-01 22:43:00,
2013-04-01 18:44:00,35.4,35.4,30.09,NW,315,17.0,17.0,0,0.00,,,0.08,meteohub,2013-04-01 22:44:00,
2013-04-01 18:46:00,35.4,35.4,30.09,West,270,11.0,23.0,0,0.00,,,0.08,meteohub,2013-04-01 22:46:00,
2013-04-01 18:48:00,35.1,35.1,30.09,NW,315,6.0,23.0,0,0.00,,,0.08,meteohub,2013-04-01 22:48:00,
2013-04-01 18:49:00,34.9,34.9,30.10,West,270,8.0,23.0,0,0.00,,,0.08,meteohub,2013-04-01 22:49:00,
2013-04-01 18:51:00,34.9,34.9,30.10,West,270,8.0,23.0,0,0.00,,,0.08,meteohub,2013-04-01 22:51:00,
2013-04-01 18:53:00,34.7,34.7,30.10,NW,315,11.0,23.0,0,0.00,,,0.08,meteohub,2013-04-01 22:53:00,
2013-04-01 18:54:00,34.7,34.7,30.10,NW,315,4.0,23.0,0,0.00,,,0.08,meteohub,2013-04-01 22:54:00,
2013-04-01 18:55:00,34.7,34.7,30.10,West,270,4.0,23.0,0,0.00,,,0.08,meteohub,2013-04-01 22:55:00,
2013-04-01 18:56:00,34.7,34.7,30.10,North,0,6.0,23.0,0,0.00,,,0.08,meteohub,2013-04-01 22:56:00,
2013-04-01 18:59:00,34.7,34.7,30.09,West,270,8.0,23.0,0,0.00,,,0.08,meteohub,2013-04-01 22:59:00,
2013-04-01 19:00:00,34.7,34.7,30.10,WSW,248,7.0,23.0,0,0.00,,,0.08,meteohub,2013-04-01 23:00:00,
2013-04-01 19:02:00,34.5,34.5,30.10,South,180,7.0,19.0,0,0.00,,,0.08,meteohub,2013-04-01 23:02:00,
2013-04-01 19:05:00,34.2,34.2,30.10,NW,315,7.0,19.0,0,0.00,,,0.08,meteohub,2013-04-01 23:05:00,
2013-04-01 19:07:00,34.0,34.0,30.09,North,0,8.0,19.0,0,0.00,,,0.08,meteohub,2013-04-01 23:07:00,
2013-04-01 19:10:00,33.8,33.8,30.10,WSW,248,15.0,15.0,0,0.00,,,0.08,meteohub,2013-04-01 23:10:00,
2013-04-01 19:11:00,33.8,33.8,30.10,WSW,248,15.0,15.0,0,0.00,,,0.08,meteohub,2013-04-01 23:11:00,
2013-04-01 19:12:00,33.6,33.6,30.10,North,0,7.0,14.0,0,0.00,,,0.08,meteohub,2013-04-01 23:12:00,
2013-04-01 19:15:00,33.6,33.6,30.10,NW,315,15.0,15.0,0,0.00,,,0.08,meteohub,2013-04-01 23:15:00,
2013-04-01 19:16:00,33.6,33.6,30.10,NW,315,15.0,15.0,0,0.00,,,0.08,meteohub,2013-04-01 23:16:00,
2013-04-01 19:18:00,33.4,33.4,30.10,NW,315,4.0,15.0,0,0.00,,,0.08,meteohub,2013-04-01 23:18:00,
2013-04-01 19:21:00,33.3,33.3,30.10,NW,315,15.0,15.0,0,0.00,,,0.08,meteohub,2013-04-01 23:21:00,
2013-04-01 19:22:00,33.3,33.3,30.10,North,0,15.0,15.0,0,0.00,,,0.08,meteohub,2013-04-01 23:22:00,
2013-04-01 19:24:00,33.3,33.3,30.10,West,270,4.0,15.0,0,0.00,,,0.08,meteohub,2013-04-01 23:24:00,
2013-04-01 19:26:00,33.1,33.1,30.10,NW,315,6.0,15.0,0,0.00,,,0.08,meteohub,2013-04-01 23:26:00,
2013-04-01 19:27:00,33.1,33.1,30.10,NW,315,13.0,15.0,0,0.00,,,0.08,meteohub,2013-04-01 23:27:00,
2013-04-01 19:28:00,33.1,33.1,30.10,NW,315,6.0,15.0,0,0.00,,,0.08,meteohub,2013-04-01 23:28:00,
2013-04-01 19:29:00,33.1,33.1,30.11,NW,315,4.0,15.0,0,0.00,,,0.08,meteohub,2013-04-01 23:29:00,
2013-04-01 19:31:00,32.9,32.9,30.10,North,0,9.0,15.0,0,0.00,,,0.08,meteohub,2013-04-01 23:31:00,
2013-04-01 19:32:00,32.9,32.9,30.10,WSW,248,4.0,15.0,0,0.00,,,0.08,meteohub,2013-04-01 23:32:00,
2013-04-01 19:33:00,32.9,32.9,30.10,WSW,248,5.0,15.0,0,0.00,,,0.08,meteohub,2013-04-01 23:33:00,
2013-04-01 19:34:00,32.7,32.7,30.10,West,270,9.0,15.0,0,0.00,,,0.08,meteohub,2013-04-01 23:34:00,
2013-04-01 19:37:00,32.7,32.7,30.10,West,270,11.0,15.0,0,0.00,,,0.08,meteohub,2013-04-01 23:37:00,
2013-04-01 19:38:00,32.5,32.5,30.10,North,0,8.0,15.0,0,0.00,,,0.08,meteohub,2013-04-01 23:38:00,
2013-04-01 19:39:00,32.5,32.5,30.10,West,270,6.0,15.0,0,0.00,,,0.08,meteohub,2013-04-01 23:39:00,
2013-04-01 19:43:00,32.5,32.5,30.10,NW,315,8.0,15.0,0,0.00,,,0.08,meteohub,2013-04-01 23:43:00,
2013-04-01 19:44:00,32.5,32.5,30.10,NW,315,2.0,15.0,0,0.00,,,0.08,meteohub,2013-04-01 23:44:00,
2013-04-01 19:45:00,32.4,32.4,30.11,North,0,3.0,15.0,0,0.00,,,0.08,meteohub,2013-04-01 23:45:00,
2013-04-01 19:48:00,32.4,32.4,30.11,North,0,3.0,15.0,0,0.00,,,0.08,meteohub,2013-04-01 23:48:00,
2013-04-01 19:50:00,32.2,32.2,30.11,WSW,248,8.0,15.0,0,0.00,,,0.08,meteohub,2013-04-01 23:50:00,
2013-04-01 19:51:00,32.2,32.2,30.11,WSW,248,3.0,11.0,0,0.00,,,0.08,meteohub,2013-04-01 23:51:00,
2013-04-01 19:53:00,32.2,32.2,30.11,NW,315,5.0,11.0,0,0.00,,,0.08,meteohub,2013-04-01 23:53:00,
2013-04-01 19:55:00,32.2,32.2,30.11,NE,45,4.0,11.0,0,0.00,,,0.08,meteohub,2013-04-01 23:55:00,
2013-04-01 19:57:00,32.2,32.2,30.11,NW,315,10.0,11.0,0,0.00,,,0.08,meteohub,2013-04-01 23:57:00,
2013-04-01 20:03:00,31.8,31.8,30.11,NW,315,11.0,14.0,0,0.00,,,0.08,meteohub,2013-04-02 00:03:00,
2013-04-01 20:04:00,31.8,31.8,30.11,NW,315,7.0,14.0,0,0.00,,,0.08,meteohub,2013-04-02 00:04:00,
2013-04-01 20:08:00,31.8,31.8,30.11,North,0,5.0,14.0,0,0.00,,,0.08,meteohub,2013-04-02 00:08:00,
2013-04-01 20:09:00,31.8,31.8,30.11,NW,315,8.0,14.0,0,0.00,,,0.08,meteohub,2013-04-02 00:09:00,
2013-04-01 20:10:00,31.6,31.6,30.12,NW,315,3.0,14.0,0,0.00,,,0.08,meteohub,2013-04-02 00:10:00,
2013-04-01 20:14:00,31.6,31.6,30.12,NW,315,5.0,14.0,0,0.00,,,0.08,meteohub,2013-04-02 00:14:00,
2013-04-01 20:16:00,31.5,31.5,30.11,South,180,4.0,11.0,0,0.00,,,0.08,meteohub,2013-04-02 00:16:00,
2013-04-01 20:19:00,31.5,31.5,30.12,West,270,7.0,11.0,0,0.00,,,0.08,meteohub,2013-04-02 00:19:00,
2013-04-01 20:20:00,31.5,31.5,30.12,NW,315,4.0,11.0,0,0.00,,,0.08,meteohub,2013-04-02 00:20:00,
2013-04-01 20:22:00,31.3,31.3,30.12,NW,315,4.0,11.0,0,0.00,,,0.08,meteohub,2013-04-02 00:22:00,
2013-04-01 20:25:00,31.3,31.3,30.12,NW,315,4.0,11.0,0,0.00,,,0.08,meteohub,2013-04-02 00:25:00,
2013-04-01 20:27:00,31.3,31.3,30.12,NW,315,4.0,9.0,0,0.00,,,0.08,meteohub,2013-04-02 00:27:00,
2013-04-01 20:28:00,31.1,31.1,30.12,NW,315,9.0,9.0,0,0.00,,,0.08,meteohub,2013-04-02 00:28:00,
2013-04-01 20:30:00,31.1,31.1,30.12,North,0,7.0,9.0,0,0.00,,,0.08,meteohub,2013-04-02 00:30:00,
2013-04-01 20:33:00,31.1,31.1,30.12,NW,315,3.0,9.0,0,0.00,,,0.08,meteohub,2013-04-02 00:33:00,
2013-04-01 20:35:00,30.9,30.9,30.12,WSW,248,12.0,12.0,0,0.00,,,0.08,meteohub,2013-04-02 00:35:00,
2013-04-01 20:36:00,30.9,30.9,30.12,WSW,248,12.0,12.0,0,0.00,,,0.08,meteohub,2013-04-02 00:36:00,
2013-04-01 20:37:00,30.9,30.9,30.12,NW,315,4.0,9.0,0,0.00,,,0.08,meteohub,2013-04-02 00:37:00,
2013-04-01 20:38:00,30.9,30.9,30.12,North,0,3.0,9.0,0,0.00,,,0.08,meteohub,2013-04-02 00:38:00,
2013-04-01 20:42:00,30.9,30.9,30.13,South,180,3.0,12.0,0,0.00,,,0.08,meteohub,2013-04-02 00:42:00,
2013-04-01 20:43:00,30.9,30.9,30.12,NW,315,5.0,12.0,0,0.00,,,0.08,meteohub,2013-04-02 00:43:00,
2013-04-01 20:45:00,30.7,30.7,30.12,South,180,2.0,12.0,0,0.00,,,0.08,meteohub,2013-04-02 00:45:00,
2013-04-01 20:47:00,30.7,30.7,30.13,NW,315,2.0,12.0,0,0.00,,,0.08,meteohub,2013-04-02 00:47:00,
2013-04-01 20:48:00,30.7,30.7,30.13,NW,315,2.0,12.0,0,0.00,,,0.08,meteohub,2013-04-02 00:48:00,
2013-04-01 20:51:00,30.6,30.6,30.12,NW,315,5.0,12.0,0,0.00,,,0.08,meteohub,2013-04-02 00:51:00,
2013-04-01 20:52:00,30.6,30.6,30.12,North,0,2.0,12.0,0,0.00,,,0.08,meteohub,2013-04-02 00:52:00,
2013-04-01 20:53:00,30.6,30.6,30.12,NW,315,6.0,12.0,0,0.00,,,0.08,meteohub,2013-04-02 00:53:00,
2013-04-01 20:55:00,30.4,30.4,30.12,NW,315,2.0,12.0,0,0.00,,,0.08,meteohub,2013-04-02 00:55:00,
2013-04-01 20:57:00,30.4,30.4,30.13,NE,45,10.0,11.0,0,0.00,,,0.08,meteohub,2013-04-02 00:57:00,
2013-04-01 20:58:00,30.4,30.4,30.13,NW,315,4.0,11.0,0,0.00,,,0.08,meteohub,2013-04-02 00:58:00,
2013-04-01 20:59:00,30.2,30.2,30.13,North,0,6.0,11.0,0,0.00,,,0.08,meteohub,2013-04-02 00:59:00,
2013-04-01 21:00:00,30.2,30.2,30.13,NW,315,4.0,11.0,0,0.00,,,0.08,meteohub,2013-04-02 01:00:00,
2013-04-01 21:03:00,30.2,30.2,30.13,West,270,2.0,11.0,0,0.00,,,0.08,meteohub,2013-04-02 01:03:00,
2013-04-01 21:05:00,30.0,30.0,30.13,North,0,4.0,11.0,0,0.00,,,0.08,meteohub,2013-04-02 01:05:00,
2013-04-01 21:06:00,30.0,30.0,30.13,North,0,7.0,11.0,0,0.00,,,0.08,meteohub,2013-04-02 01:06:00,
2013-04-01 21:09:00,30.0,30.0,30.13,NW,315,3.0,11.0,0,0.00,,,0.08,meteohub,2013-04-02 01:09:00,
2013-04-01 21:10:00,30.0,30.0,30.13,NW,315,3.0,10.0,0,0.00,,,0.08,meteohub,2013-04-02 01:10:00,
2013-04-01 21:12:00,29.8,29.8,30.13,North,0,5.0,10.0,0,0.00,,,0.08,meteohub,2013-04-02 01:12:00,
2013-04-01 21:14:00,29.8,29.8,30.13,North,0,3.0,10.0,0,0.00,,,0.08,meteohub,2013-04-02 01:14:00,
2013-04-01 21:15:00,29.8,29.8,30.13,North,0,3.0,7.0,0,0.00,,,0.08,meteohub,2013-04-02 01:15:00,
2013-04-01 21:17:00,29.8,29.8,30.13,West,270,5.0,7.0,0,0.00,,,0.08,meteohub,2013-04-02 01:17:00,
2013-04-01 21:19:00,29.8,29.8,30.13,West,270,3.0,7.0,0,0.00,,,0.08,meteohub,2013-04-02 01:19:00,
2013-04-01 21:20:00,29.7,29.7,30.14,NW,315,2.0,7.0,0,0.00,,,0.08,meteohub,2013-04-02 01:20:00,
2013-04-01 21:21:00,29.7,29.7,30.13,North,0,1.0,7.0,0,0.00,,,0.08,meteohub,2013-04-02 01:21:00,
2013-04-01 21:22:00,29.7,29.7,30.13,NW,315,2.0,7.0,0,0.00,,,0.08,meteohub,2013-04-02 01:22:00,
2013-04-01 21:25:00,29.5,29.5,30.13,NW,315,10.0,10.0,0,0.00,,,0.08,meteohub,2013-04-02 01:25:00,
2013-04-01 21:27:00,29.5,29.5,30.14,North,0,1.0,7.0,0,0.00,,,0.08,meteohub,2013-04-02 01:27:00,
2013-04-01 21:31:00,29.3,29.3,30.14,NW,315,2.0,10.0,0,0.00,,,0.08,meteohub,2013-04-02 01:31:00,
2013-04-01 21:32:00,29.3,29.3,30.14,North,0,3.0,10.0,0,0.00,,,0.08,meteohub,2013-04-02 01:32:00,
2013-04-01 21:33:00,29.3,29.3,30.13,NW,315,3.0,10.0,0,0.00,,,0.08,meteohub,2013-04-02 01:33:00,
2013-04-01 21:37:00,29.1,29.1,30.14,NW,315,2.0,10.0,0,0.00,,,0.08,meteohub,2013-04-02 01:37:00,
2013-04-01 21:38:00,29.1,29.1,30.13,North,0,2.0,10.0,0,0.00,,,0.08,meteohub,2013-04-02 01:38:00,
2013-04-01 21:39:00,29.1,29.1,30.14,NW,315,2.0,10.0,0,0.00,,,0.08,meteohub,2013-04-02 01:39:00,
2013-04-01 21:43:00,29.1,29.1,30.13,NW,315,4.0,10.0,0,0.00,,,0.08,meteohub,2013-04-02 01:43:00,
2013-04-01 21:44:00,29.1,29.1,30.14,NW,315,2.0,10.0,0,0.00,,,0.08,meteohub,2013-04-02 01:44:00,
2013-04-01 21:49:00,29.1,29.1,30.14,NW,315,1.0,6.0,0,0.00,,,0.08,meteohub,2013-04-02 01:49:00,
2013-04-01 21:50:00,29.1,29.1,30.14,NW,315,1.0,6.0,0,0.00,,,0.08,meteohub,2013-04-02 01:50:00,
2013-04-01 21:54:00,28.8,28.8,30.14,West,270,3.0,4.0,0,0.00,,,0.08,meteohub,2013-04-02 01:54:00,
2013-04-01 21:55:00,28.8,28.8,30.14,West,270,6.0,6.0,0,0.00,,,0.08,meteohub,2013-04-02 01:55:00,
2013-04-01 21:59:00,28.8,28.8,30.14,West,270,4.0,5.0,0,0.00,,,0.08,meteohub,2013-04-02 01:59:00,
2013-04-01 22:01:00,28.8,28.8,30.15,West,270,4.0,7.0,0,0.00,,,0.08,meteohub,2013-04-02 02:01:00,
2013-04-01 22:02:00,28.8,28.8,30.14,West,270,4.0,7.0,0,0.00,,,0.08,meteohub,2013-04-02 02:02:00,
2013-04-01 22:06:00,28.8,28.8,30.14,West,270,4.0,7.0,0,0.00,,,0.08,meteohub,2013-04-02 02:06:00,
2013-04-01 22:07:00,28.8,28.8,30.14,West,270,4.0,7.0,0,0.00,,,0.08,meteohub,2013-04-02 02:07:00,
2013-04-01 22:12:00,28.8,28.8,30.14,North,0,4.0,6.0,0,0.00,,,0.08,meteohub,2013-04-02 02:12:00,
2013-04-01 22:13:00,28.8,28.8,30.14,West,270,1.0,6.0,0,0.00,,,0.08,meteohub,2013-04-02 02:13:00,
2013-04-01 22:17:00,28.6,28.6,30.15,NW,315,2.0,6.0,0,0.00,,,0.08,meteohub,2013-04-02 02:17:00,
2013-04-01 22:18:00,28.6,28.6,30.15,NW,315,2.0,6.0,0,0.00,,,0.08,meteohub,2013-04-02 02:18:00,
2013-04-01 22:19:00,28.6,28.6,30.15,NW,315,5.0,6.0,0,0.00,,,0.08,meteohub,2013-04-02 02:19:00,
2013-04-01 22:22:00,28.6,28.6,30.15,NW,315,2.0,6.0,0,0.00,,,0.08,meteohub,2013-04-02 02:22:00,
2013-04-01 22:23:00,28.6,28.6,30.14,NW,315,4.0,6.0,0,0.00,,,0.08,meteohub,2013-04-02 02:23:00,
2013-04-01 22:25:00,28.6,28.6,30.15,NW,315,2.0,6.0,0,0.00,,,0.08,meteohub,2013-04-02 02:25:00,
2013-04-01 22:27:00,28.6,28.6,30.14,NW,315,5.0,6.0,0,0.00,,,0.08,meteohub,2013-04-02 02:27:00,
2013-04-01 22:28:00,28.6,28.6,30.14,North,0,3.0,6.0,0,0.00,,,0.08,meteohub,2013-04-02 02:28:00,
2013-04-01 22:29:00,28.6,28.6,30.15,NW,315,2.0,6.0,0,0.00,,,0.08,meteohub,2013-04-02 02:29:00,
2013-04-01 22:31:00,28.6,28.6,30.14,North,0,1.0,6.0,0,0.00,,,0.08,meteohub,2013-04-02 02:31:00,
2013-04-01 22:32:00,28.6,28.6,30.15,WSW,248,2.0,6.0,0,0.00,,,0.08,meteohub,2013-04-02 02:32:00,
2013-04-01 22:33:00,28.6,28.6,30.15,WSW,248,2.0,6.0,0,0.00,,,0.08,meteohub,2013-04-02 02:33:00,
2013-04-01 22:34:00,28.6,28.6,30.14,NW,315,3.0,6.0,0,0.00,,,0.08,meteohub,2013-04-02 02:34:00,
2013-04-01 22:38:00,28.6,28.6,30.14,North,0,2.0,6.0,0,0.00,,,0.08,meteohub,2013-04-02 02:38:00,
2013-04-01 22:39:00,28.6,28.6,30.14,NE,45,1.0,6.0,0,0.00,,,0.08,meteohub,2013-04-02 02:39:00,
2013-04-01 22:40:00,28.4,28.4,30.14,West,270,2.0,6.0,0,0.00,,,0.08,meteohub,2013-04-02 02:40:00,
2013-04-01 22:43:00,28.4,28.4,30.14,WSW,248,3.0,6.0,0,0.00,,,0.08,meteohub,2013-04-02 02:43:00,
2013-04-01 22:45:00,28.4,28.4,30.14,NW,315,2.0,3.0,0,0.00,,,0.08,meteohub,2013-04-02 02:45:00,
2013-04-01 22:47:00,28.4,28.4,30.15,North,0,4.0,4.0,0,0.00,,,0.08,meteohub,2013-04-02 02:47:00,
2013-04-01 22:48:00,28.4,28.4,30.14,NW,315,2.0,3.0,0,0.00,,,0.08,meteohub,2013-04-02 02:48:00,
2013-04-01 22:49:00,28.2,28.2,30.14,NW,315,4.0,4.0,0,0.00,,,0.08,meteohub,2013-04-02 02:49:00,
2013-04-01 22:50:00,28.2,28.2,30.14,West,270,6.0,6.0,0,0.00,,,0.08,meteohub,2013-04-02 02:50:00,
2013-04-01 22:52:00,28.2,28.2,30.14,NW,315,3.0,4.0,0,0.00,,,0.08,meteohub,2013-04-02 02:52:00,
2013-04-01 22:54:00,28.2,28.2,30.14,NW,315,7.0,7.0,0,0.00,,,0.08,meteohub,2013-04-02 02:54:00,
2013-04-01 22:57:00,28.2,28.2,30.14,West,270,2.0,9.0,0,0.00,,,0.08,meteohub,2013-04-02 02:57:00,
2013-04-01 22:58:00,28.2,28.2,30.14,North,0,2.0,9.0,0,0.00,,,0.08,meteohub,2013-04-02 02:58:00,
2013-04-01 22:59:00,28.2,28.2,30.14,North,0,4.0,9.0,0,0.00,,,0.08,meteohub,2013-04-02 02:59:00,
2013-04-01 23:00:00,28.2,28.2,30.14,North,0,4.0,9.0,0,0.00,,,0.08,meteohub,2013-04-02 03:00:00,
2013-04-01 23:02:00,28.2,28.2,30.14,NW,315,4.0,9.0,0,0.00,,,0.08,meteohub,2013-04-02 03:02:00,
2013-04-01 23:04:00,28.2,28.2,30.14,NW,315,4.0,9.0,0,0.00,,,0.08,meteohub,2013-04-02 03:04:00,
2013-04-01 23:05:00,28.2,28.2,30.14,NW,315,4.0,9.0,0,0.00,,,0.08,meteohub,2013-04-02 03:05:00,
2013-04-01 23:07:00,28.2,28.2,30.14,NW,315,4.0,9.0,0,0.00,,,0.08,meteohub,2013-04-02 03:07:00,
2013-04-01 23:09:00,28.2,28.2,30.14,NW,315,4.0,9.0,0,0.00,,,0.08,meteohub,2013-04-02 03:09:00,
2013-04-01 23:10:00,28.0,28.0,30.14,NW,315,3.0,4.0,0,0.00,,,0.08,meteohub,2013-04-02 03:10:00,
2013-04-01 23:14:00,27.9,27.9,30.14,West,270,3.0,4.0,0,0.00,,,0.08,meteohub,2013-04-02 03:14:00,
2013-04-01 23:15:00,27.9,27.9,30.14,NW,315,2.0,4.0,0,0.00,,,0.08,meteohub,2013-04-02 03:15:00,
2013-04-01 23:16:00,27.9,27.9,30.14,NW,315,4.0,4.0,0,0.00,,,0.08,meteohub,2013-04-02 03:16:00,
2013-04-01 23:19:00,27.9,27.9,30.14,NW,315,2.0,4.0,0,0.00,,,0.08,meteohub,2013-04-02 03:19:00,
2013-04-01 23:20:00,27.9,27.9,30.14,West,270,2.0,4.0,0,0.00,,,0.08,meteohub,2013-04-02 03:20:00,
2013-04-01 23:21:00,27.7,27.7,30.14,North,0,2.0,4.0,0,0.00,,,0.08,meteohub,2013-04-02 03:21:00,
2013-04-01 23:24:00,27.7,27.7,30.14,NW,315,2.0,4.0,0,0.00,,,0.08,meteohub,2013-04-02 03:24:00,
2013-04-01 23:25:00,27.7,27.7,30.14,NW,315,5.0,5.0,0,0.00,,,0.08,meteohub,2013-04-02 03:25:00,
2013-04-01 23:26:00,27.7,27.7,30.14,NW,315,5.0,5.0,0,0.00,,,0.08,meteohub,2013-04-02 03:26:00,
2013-04-01 23:28:00,27.5,27.5,30.14,NW,315,2.0,4.0,0,0.00,,,0.08,meteohub,2013-04-02 03:28:00,
2013-04-01 23:29:00,27.5,27.5,30.14,NW,315,5.0,5.0,0,0.00,,,0.08,meteohub,2013-04-02 03:29:00,
2013-04-01 23:30:00,27.5,27.5,30.14,NW,315,3.0,5.0,0,0.00,,,0.08,meteohub,2013-04-02 03:30:00,
2013-04-01 23:31:00,27.5,27.5,30.14,NW,315,3.0,5.0,0,0.00,,,0.08,meteohub,2013-04-02 03:31:00,
2013-04-01 23:33:00,27.5,27.5,30.14,NW,315,4.0,5.0,0,0.00,,,0.08,meteohub,2013-04-02 03:33:00,
2013-04-01 23:35:00,27.5,27.5,30.14,NW,315,5.0,5.0,0,0.00,,,0.08,meteohub,2013-04-02 03:35:00,
2013-04-01 23:36:00,27.5,27.5,30.14,NW,315,5.0,5.0,0,0.00,,,0.08,meteohub,2013-04-02 03:36:00,
2013-04-01 23:37:00,27.5,27.5,30.14,West,270,2.0,5.0,0,0.00,,,0.08,meteohub,2013-04-02 03:37:00,
2013-04-01 23:38:00,27.5,27.5,30.14,NW,315,2.0,5.0,0,0.00,,,0.08,meteohub,2013-04-02 03:38:00,
2013-04-01 23:40:00,27.5,27.5,30.14,NW,315,7.0,7.0,0,0.00,,,0.08,meteohub,2013-04-02 03:40:00,
2013-04-01 23:41:00,27.5,27.5,30.14,NW,315,4.0,7.0,0,0.00,,,0.08,meteohub,2013-04-02 03:41:00,
2013-04-01 23:42:00,27.5,27.5,30.14,West,270,3.0,7.0,0,0.00,,,0.08,meteohub,2013-04-02 03:42:00,
2013-04-01 23:44:00,27.5,27.5,30.14,NW,315,2.0,7.0,0,0.00,,,0.08,meteohub,2013-04-02 03:44:00,
2013-04-01 23:46:00,27.5,27.5,30.14,NW,315,2.0,7.0,0,0.00,,,0.08,meteohub,2013-04-02 03:46:00,
2013-04-01 23:47:00,27.5,27.5,30.14,NW,315,3.0,7.0,0,0.00,,,0.08,meteohub,2013-04-02 03:47:00,
2013-04-01 23:50:00,27.5,27.5,30.14,NW,315,5.0,8.0,0,0.00,,,0.08,meteohub,2013-04-02 03:50:00,
2013-04-01 23:51:00,27.5,27.5,30.14,NW,315,2.0,8.0,0,0.00,,,0.08,meteohub,2013-04-02 03:51:00,
2013-04-01 23:52:00,27.5,27.5,30.14,NW,315,4.0,8.0,0,0.00,,,0.08,meteohub,2013-04-02 03:52:00,
2013-04-01 23:53:00,27.5,27.5,30.14,West,270,2.0,8.0,0,0.00,,,0.08,meteohub,2013-04-02 03:53:00,
2013-04-01 23:55:00,27.5,27.5,30.14,NW,315,3.0,8.0,0,0.00,,,0.08,meteohub,2013-04-02 03:55:00,
2013-04-01 23:56:00,27.5,27.5,30.14,NW,315,2.0,8.0,0,0.00,,,0.08,meteohub,2013-04-02 03:56:00,
2013-04-01 23:58:00,27.5,27.5,30.14,NW,315,2.0,8.0,0,0.00,,,0.08,meteohub,2013-04-02 03:58:00,